Wetterdaten: Montag, 21.11.2016
Datum Zeit Temp. A. Feuchte A. Luftdruck Regen Wind Richtung Richtung Sonnenschein ET UV Solar Taupunkt Windchill Windben Empfang
21.11.2016 00:00 0,8 C 98 % 1011,8 hPa 0,0 l/m 0,7 km/h (0 Bft) S 171 0 min 0,000 mm 0,0 UV-I 0 W/m 0,5 C 0,8 C 3,2 km/h (1 Bft) 97,87 %
21.11.2016 00:02 0,7 C 98 % 1011,8 hPa 0,0 l/m 0,7 km/h (0 Bft) S 171 0 min 0,000 mm 0,0 UV-I 0 W/m 0,4 C 0,7 C 3,2 km/h (1 Bft) 95,92 %
21.11.2016 00:04 0,4 C 98 % 1011,7 hPa 0,0 l/m 0,1 km/h (0 Bft) S 171 0 min 0,000 mm 0,0 UV-I 0 W/m 0,1 C 0,4 C 1,6 km/h (1 Bft) 100,00 %
21.11.2016 00:06 0,3 C 98 % 1011,7 hPa 0,0 l/m 2,3 km/h (1 Bft) S 171 0 min 0,000 mm 0,0 UV-I 0 W/m 0,0 C 0,3 C 3,2 km/h (1 Bft) 96,00 %
21.11.2016 00:08 0,3 C 98 % 1011,6 hPa 0,0 l/m 3,1 km/h (1 Bft) S 171 0 min 0,000 mm 0,0 UV-I 0 W/m 0,0 C 0,3 C 3,2 km/h (1 Bft) 96,00 %
21.11.2016 00:10 0,3 C 98 % 1011,8 hPa 0,0 l/m 1,4 km/h (1 Bft) S 171 0 min 0,000 mm 0,0 UV-I 0 W/m 0,0 C 0,3 C 3,2 km/h (1 Bft) 100,00 %
21.11.2016 00:12 0,4 C 98 % 1011,8 hPa 0,0 l/m 2,3 km/h (1 Bft) S 171 0 min 0,000 mm 0,0 UV-I 0 W/m 0,1 C 0,4 C 3,2 km/h (1 Bft) 96,77 %
21.11.2016 00:14 0,4 C 98 % 1011,8 hPa 0,0 l/m 1,4 km/h (1 Bft) S 171 0 min 0,000 mm 0,0 UV-I 0 W/m 0,1 C 0,4 C 3,2 km/h (1 Bft) 97,87 %
21.11.2016 00:16 0,4 C 98 % 1011,8 hPa 0,0 l/m 0,1 km/h (0 Bft) S 171 0 min 0,000 mm 0,0 UV-I 0 W/m 0,1 C 0,4 C 1,6 km/h (1 Bft) 95,74 %
21.11.2016 00:18 0,4 C 98 % 1011,9 hPa 0,0 l/m 0,0 km/h (0 Bft) S 171 0 min 0,000 mm 0,0 UV-I 0 W/m 0,1 C 0,4 C 0,0 km/h (0 Bft) 93,62 %
21.11.2016 00:20 0,3 C 99 % 1012,0 hPa 0,0 l/m 0,3 km/h (0 Bft) S 171 0 min 0,000 mm 0,0 UV-I 0 W/m 0,2 C 0,3 C 1,6 km/h (1 Bft) 98,00 %
21.11.2016 00:22 0,3 C 99 % 1011,9 hPa 0,0 l/m 2,2 km/h (1 Bft) S 171 0 min 0,000 mm 0,0 UV-I 0 W/m 0,2 C 0,3 C 3,2 km/h (1 Bft) 96,23 %
21.11.2016 00:24 0,3 C 99 % 1011,8 hPa 0,0 l/m 0,8 km/h (0 Bft) S 171 0 min 0,000 mm 0,0 UV-I 0 W/m 0,2 C 0,3 C 3,2 km/h (1 Bft) 97,56 %
21.11.2016 00:26 0,3 C 99 % 1011,7 hPa 0,0 l/m 0,0 km/h (0 Bft) S 171 0 min 0,000 mm 0,0 UV-I 0 W/m 0,2 C 0,3 C 0,0 km/h (0 Bft) 100,00 %
21.11.2016 00:28 0,4 C 99 % 1011,7 hPa 0,0 l/m 0,1 km/h (0 Bft) S 171 0 min 0,000 mm 0,0 UV-I 0 W/m 0,3 C 0,4 C 1,6 km/h (1 Bft) 100,00 %
21.11.2016 00:30 0,4 C 99 % 1011,8 hPa 0,0 l/m 2,6 km/h (1 Bft) S 171 0 min 0,000 mm 0,0 UV-I 0 W/m 0,3 C 0,4 C 3,2 km/h (1 Bft) 100,00 %
21.11.2016 00:32 0,3 C 99 % 1011,7 hPa 0,0 l/m 1,4 km/h (1 Bft) S 171 0 min 0,000 mm 0,0 UV-I 0 W/m 0,2 C 0,3 C 3,2 km/h (1 Bft) 100,00 %
21.11.2016 00:34 0,3 C 99 % 1011,7 hPa 0,0 l/m 1,0 km/h (0 Bft) S 171 0 min 0,000 mm 0,0 UV-I 0 W/m 0,2 C 0,3 C 1,6 km/h (1 Bft) 94,34 %
21.11.2016 00:36 0,2 C 98 % 1011,6 hPa 0,0 l/m 0,3 km/h (0 Bft) S 171 0 min 0,000 mm 0,0 UV-I 0 W/m -0,1 C 0,2 C 1,6 km/h (1 Bft) 97,87 %
21.11.2016 00:38 0,2 C 98 % 1011,7 hPa 0,0 l/m 0,0 km/h (0 Bft) S 171 0 min 0,000 mm 0,0 UV-I 0 W/m -0,1 C 0,2 C 0,0 km/h (0 Bft) 100,00 %
21.11.2016 00:40 0,2 C 98 % 1011,7 hPa 0,0 l/m 0,9 km/h (0 Bft) S 171 0 min 0,000 mm 0,0 UV-I 0 W/m -0,1 C 0,2 C 1,6 km/h (1 Bft) 100,00 %
21.11.2016 00:42 0,2 C 98 % 1011,6 hPa 0,0 l/m 0,3 km/h (0 Bft) S 171 0 min 0,000 mm 0,0 UV-I 0 W/m -0,1 C 0,2 C 1,6 km/h (1 Bft) 100,00 %
21.11.2016 00:44 0,3 C 98 % 1011,6 hPa 0,0 l/m 0,5 km/h (0 Bft) S 171 0 min 0,000 mm 0,0 UV-I 0 W/m 0,0 C 0,3 C 3,2 km/h (1 Bft) 100,00 %
21.11.2016 00:46 0,3 C 99 % 1011,6 hPa 0,0 l/m 1,9 km/h (1 Bft) S 171 0 min 0,000 mm 0,0 UV-I 0 W/m 0,2 C 0,3 C 3,2 km/h (1 Bft) 100,00 %
21.11.2016 00:48 0,3 C 99 % 1011,6 hPa 0,0 l/m 0,7 km/h (0 Bft) S 171 0 min 0,000 mm 0,0 UV-I 0 W/m 0,2 C 0,3 C 3,2 km/h (1 Bft) 97,87 %
21.11.2016 00:50 0,3 C 98 % 1011,6 hPa 0,0 l/m 0,0 km/h (0 Bft) S 171 0 min 0,000 mm 0,0 UV-I 0 W/m 0,0 C 0,3 C 1,6 km/h (1 Bft) 100,00 %
21.11.2016 00:52 0,3 C 98 % 1011,6 hPa 0,0 l/m 0,0 km/h (0 Bft) S 171 0 min 0,000 mm 0,0 UV-I 0 W/m 0,0 C 0,3 C 0,0 km/h (0 Bft) 100,00 %
21.11.2016 00:54 0,2 C 98 % 1011,6 hPa 0,0 l/m 1,3 km/h (1 Bft) S 171 0 min 0,000 mm 0,0 UV-I 0 W/m -0,1 C 0,2 C 3,2 km/h (1 Bft) 100,00 %
21.11.2016 00:56 0,2 C 98 % 1011,5 hPa 0,0 l/m 1,6 km/h (1 Bft) S 171 0 min 0,000 mm 0,0 UV-I 0 W/m -0,1 C 0,2 C 3,2 km/h (1 Bft) 97,87 %
21.11.2016 00:58 0,2 C 98 % 1011,5 hPa 0,0 l/m 0,6 km/h (0 Bft) S 171 0 min 0,000 mm 0,0 UV-I 0 W/m -0,1 C 0,2 C 1,6 km/h (1 Bft) 100,00 %
21.11.2016 01:00 0,2 C 98 % 1011,6 hPa 0,0 l/m 0,1 km/h (0 Bft) S 171 0 min 0,000 mm 0,0 UV-I 0 W/m -0,1 C 0,2 C 1,6 km/h (1 Bft) 100,00 %
21.11.2016 01:02 0,3 C 98 % 1011,6 hPa 0,0 l/m 1,6 km/h (1 Bft) S 171 0 min 0,000 mm 0,0 UV-I 0 W/m 0,0 C 0,3 C 3,2 km/h (1 Bft) 98,21 %
21.11.2016 01:04 0,2 C 98 % 1011,6 hPa 0,0 l/m 0,5 km/h (0 Bft) S 171 0 min 0,000 mm 0,0 UV-I 0 W/m -0,1 C 0,2 C 1,6 km/h (1 Bft) 100,00 %
21.11.2016 01:06 0,0 C 99 % 1011,6 hPa 0,0 l/m 0,4 km/h (0 Bft) S 171 0 min 0,000 mm 0,0 UV-I 0 W/m -0,1 C 0,0 C 1,6 km/h (1 Bft) 100,00 %
21.11.2016 01:08 -0,2 C 98 % 1011,6 hPa 0,0 l/m 0,0 km/h (0 Bft) S 171 0 min 0,000 mm 0,0 UV-I 0 W/m -0,5 C -0,2 C 1,6 km/h (1 Bft) 100,00 %
21.11.2016 01:10 -0,2 C 98 % 1011,6 hPa 0,0 l/m 2,2 km/h (1 Bft) S 171 0 min 0,000 mm 0,0 UV-I 0 W/m -0,5 C -0,2 C 3,2 km/h (1 Bft) 98,00 %
21.11.2016 01:12 -0,3 C 98 % 1011,6 hPa 0,0 l/m 1,7 km/h (1 Bft) S 171 0 min 0,000 mm 0,0 UV-I 0 W/m -0,6 C -0,3 C 3,2 km/h (1 Bft) 100,00 %
21.11.2016 01:14 -0,3 C 98 % 1011,6 hPa 0,0 l/m 0,7 km/h (0 Bft) S 171 0 min 0,000 mm 0,0 UV-I 0 W/m -0,6 C -0,3 C 1,6 km/h (1 Bft) 100,00 %
21.11.2016 01:16 -0,3 C 98 % 1011,6 hPa 0,0 l/m 0,3 km/h (0 Bft) S 171 0 min 0,000 mm 0,0 UV-I 0 W/m -0,6 C -0,3 C 1,6 km/h (1 Bft) 100,00 %
21.11.2016 01:18 -0,3 C 98 % 1011,5 hPa 0,0 l/m 0,3 km/h (0 Bft) S 171 0 min 0,000 mm 0,0 UV-I 0 W/m -0,6 C -0,3 C 1,6 km/h (1 Bft) 100,00 %
21.11.2016 01:20 -0,4 C 98 % 1011,5 hPa 0,0 l/m 0,0 km/h (0 Bft) S 171 0 min 0,000 mm 0,0 UV-I 0 W/m -0,7 C -0,4 C 0,0 km/h (0 Bft) 100,00 %
21.11.2016 01:22 -0,5 C 98 % 1011,5 hPa 0,0 l/m 0,0 km/h (0 Bft) S 171 0 min 0,000 mm 0,0 UV-I 0 W/m -0,8 C -0,5 C 0,0 km/h (0 Bft) 100,00 %
21.11.2016 01:24 -0,6 C 98 % 1011,6 hPa 0,0 l/m 0,0 km/h (0 Bft) S 171 0 min 0,000 mm 0,0 UV-I 0 W/m -0,9 C -0,6 C 0,0 km/h (0 Bft) 98,11 %
21.11.2016 01:26 -0,5 C 98 % 1011,6 hPa 0,0 l/m 0,1 km/h (0 Bft) S 171 0 min 0,000 mm 0,0 UV-I 0 W/m -0,8 C -0,5 C 1,6 km/h (1 Bft) 100,00 %
21.11.2016 01:28 -0,3 C 98 % 1011,7 hPa 0,0 l/m 0,6 km/h (0 Bft) S 171 0 min 0,000 mm 0,0 UV-I 0 W/m -0,6 C -0,3 C 1,6 km/h (1 Bft) 100,00 %
21.11.2016 01:30 -0,2 C 99 % 1011,8 hPa 0,0 l/m 0,3 km/h (0 Bft) S 171 0 min 0,000 mm 0,0 UV-I 0 W/m -0,3 C -0,2 C 3,2 km/h (1 Bft) 100,00 %
21.11.2016 01:32 0,0 C 98 % 1011,8 hPa 0,0 l/m 4,8 km/h (1 Bft) S 171 0 min 0,000 mm 0,0 UV-I 0 W/m -0,3 C 0,0 C 6,4 km/h (2 Bft) 100,00 %
21.11.2016 01:34 0,1 C 98 % 1011,7 hPa 0,0 l/m 3,6 km/h (1 Bft) S 171 0 min 0,000 mm 0,0 UV-I 0 W/m -0,2 C 0,1 C 6,4 km/h (2 Bft) 100,00 %
21.11.2016 01:36 0,0 C 99 % 1011,6 hPa 0,0 l/m 0,3 km/h (0 Bft) S 172 0 min 0,000 mm 0,0 UV-I 0 W/m -0,1 C 0,0 C 1,6 km/h (1 Bft) 100,00 %
21.11.2016 01:38 0,0 C 98 % 1011,5 hPa 0,0 l/m 0,9 km/h (0 Bft) S 172 0 min 0,000 mm 0,0 UV-I 0 W/m -0,3 C 0,0 C 1,6 km/h (1 Bft) 100,00 %
21.11.2016 01:40 0,0 C 98 % 1011,5 hPa 0,0 l/m 1,9 km/h (1 Bft) S 172 0 min 0,000 mm 0,0 UV-I 0 W/m -0,3 C 0,0 C 3,2 km/h (1 Bft) 97,87 %
21.11.2016 01:42 0,2 C 99 % 1011,5 hPa 0,0 l/m 2,3 km/h (1 Bft) S 171 0 min 0,000 mm 0,0 UV-I 0 W/m 0,1 C 0,2 C 6,4 km/h (2 Bft) 98,00 %
21.11.2016 01:44 0,3 C 99 % 1011,6 hPa 0,0 l/m 0,1 km/h (0 Bft) S 171 0 min 0,000 mm 0,0 UV-I 0 W/m 0,2 C 0,3 C 1,6 km/h (1 Bft) 100,00 %
21.11.2016 01:46 0,3 C 99 % 1011,7 hPa 0,0 l/m 0,7 km/h (0 Bft) S 171 0 min 0,000 mm 0,0 UV-I 0 W/m 0,2 C 0,3 C 3,2 km/h (1 Bft) 97,87 %
21.11.2016 01:48 0,2 C 99 % 1011,8 hPa 0,0 l/m 1,3 km/h (1 Bft) S 171 0 min 0,000 mm 0,0 UV-I 0 W/m 0,1 C 0,2 C 3,2 km/h (1 Bft) 96,00 %
21.11.2016 01:50 0,1 C 99 % 1011,7 hPa 0,0 l/m 1,7 km/h (1 Bft) S 171 0 min 0,000 mm 0,0 UV-I 0 W/m -0,0 C 0,1 C 3,2 km/h (1 Bft) 100,00 %
21.11.2016 01:52 -0,1 C 98 % 1011,7 hPa 0,0 l/m 1,2 km/h (1 Bft) S 171 0 min 0,000 mm 0,0 UV-I 0 W/m -0,4 C -0,1 C 3,2 km/h (1 Bft) 97,14 %
21.11.2016 01:54 -0,1 C 99 % 1011,7 hPa 0,0 l/m 1,4 km/h (1 Bft) S 171 0 min 0,000 mm 0,0 UV-I 0 W/m -0,2 C -0,1 C 3,2 km/h (1 Bft) 100,00 %
21.11.2016 01:56 -0,1 C 98 % 1011,7 hPa 0,0 l/m 2,1 km/h (1 Bft) S 171 0 min 0,000 mm 0,0 UV-I 0 W/m -0,4 C -0,1 C 6,4 km/h (2 Bft) 100,00 %
21.11.2016 01:58 -0,1 C 98 % 1011,6 hPa 0,0 l/m 0,8 km/h (0 Bft) S 171 0 min 0,000 mm 0,0 UV-I 0 W/m -0,4 C -0,1 C 1,6 km/h (1 Bft) 100,00 %
21.11.2016 02:00 -0,1 C 98 % 1011,7 hPa 0,0 l/m 2,1 km/h (1 Bft) S 171 0 min 0,000 mm 0,0 UV-I 0 W/m -0,4 C -0,1 C 3,2 km/h (1 Bft) 98,00 %
21.11.2016 02:02 0,0 C 98 % 1011,7 hPa 0,0 l/m 1,4 km/h (1 Bft) S 171 0 min 0,000 mm 0,0 UV-I 0 W/m -0,3 C 0,0 C 3,2 km/h (1 Bft) 94,74 %
21.11.2016 02:04 0,1 C 99 % 1011,8 hPa 0,0 l/m 5,1 km/h (1 Bft) S 175 0 min 0,000 mm 0,0 UV-I 0 W/m -0,0 C 0,1 C 8,0 km/h (2 Bft) 98,00 %
21.11.2016 02:06 0,1 C 99 % 1011,8 hPa 0,0 l/m 5,0 km/h (1 Bft) S-SW 200 0 min 0,000 mm 0,0 UV-I 0 W/m -0,0 C 0,1 C 8,0 km/h (2 Bft) 94,00 %
21.11.2016 02:08 0,1 C 99 % 1011,8 hPa 0,0 l/m 3,7 km/h (1 Bft) S-SW 200 0 min 0,000 mm 0,0 UV-I 0 W/m -0,0 C 0,1 C 4,8 km/h (1 Bft) 98,00 %
21.11.2016 02:10 0,1 C 99 % 1011,8 hPa 0,0 l/m 3,4 km/h (1 Bft) S-SW 200 0 min 0,000 mm 0,0 UV-I 0 W/m -0,0 C 0,1 C 6,4 km/h (2 Bft) 97,87 %
21.11.2016 02:12 0,1 C 99 % 1011,7 hPa 0,0 l/m 2,2 km/h (1 Bft) S-SW 200 0 min 0,000 mm 0,0 UV-I 0 W/m -0,0 C 0,1 C 4,8 km/h (1 Bft) 97,56 %
21.11.2016 02:14 0,2 C 99 % 1011,6 hPa 0,0 l/m 1,9 km/h (1 Bft) S-SW 200 0 min 0,000 mm 0,0 UV-I 0 W/m 0,1 C 0,2 C 3,2 km/h (1 Bft) 96,00 %
21.11.2016 02:16 0,2 C 99 % 1011,5 hPa 0,0 l/m 3,4 km/h (1 Bft) S-SW 197 0 min 0,000 mm 0,0 UV-I 0 W/m 0,1 C 0,2 C 4,8 km/h (1 Bft) 97,87 %
21.11.2016 02:18 0,1 C 99 % 1011,4 hPa 0,0 l/m 3,7 km/h (1 Bft) SO 138 0 min 0,000 mm 0,0 UV-I 0 W/m -0,0 C 0,1 C 6,4 km/h (2 Bft) 97,62 %
21.11.2016 02:20 0,1 C 99 % 1011,4 hPa 0,0 l/m 0,2 km/h (0 Bft) SO 138 0 min 0,000 mm 0,0 UV-I 0 W/m -0,0 C 0,1 C 1,6 km/h (1 Bft) 97,87 %
21.11.2016 02:22 0,1 C 99 % 1011,5 hPa 0,0 l/m 0,6 km/h (0 Bft) SO 138 0 min 0,000 mm 0,0 UV-I 0 W/m -0,0 C 0,1 C 3,2 km/h (1 Bft) 96,00 %
21.11.2016 02:24 0,1 C 99 % 1011,5 hPa 0,0 l/m 2,4 km/h (1 Bft) SO 138 0 min 0,000 mm 0,0 UV-I 0 W/m -0,0 C 0,1 C 3,2 km/h (1 Bft) 96,00 %
21.11.2016 02:26 0,1 C 99 % 1011,4 hPa 0,0 l/m 1,8 km/h (1 Bft) SO 138 0 min 0,000 mm 0,0 UV-I 0 W/m -0,0 C 0,1 C 3,2 km/h (1 Bft) 97,37 %
21.11.2016 02:28 0,1 C 99 % 1011,5 hPa 0,0 l/m 4,4 km/h (1 Bft) S 190 0 min 0,000 mm 0,0 UV-I 0 W/m -0,0 C 0,1 C 6,4 km/h (2 Bft) 98,21 %
21.11.2016 02:30 0,1 C 99 % 1011,6 hPa 0,0 l/m 5,3 km/h (1 Bft) S-SW 211 0 min 0,000 mm 0,0 UV-I 0 W/m -0,0 C 0,1 C 6,4 km/h (2 Bft) 94,74 %
21.11.2016 02:32 0,1 C 99 % 1011,6 hPa 0,0 l/m 5,9 km/h (2 Bft) S-SW 211 0 min 0,000 mm 0,0 UV-I 0 W/m -0,0 C 0,1 C 8,0 km/h (2 Bft) 98,11 %
21.11.2016 02:34 0,1 C 99 % 1011,5 hPa 0,0 l/m 3,1 km/h (1 Bft) S-SW 211 0 min 0,000 mm 0,0 UV-I 0 W/m -0,0 C 0,1 C 4,8 km/h (1 Bft) 94,74 %
21.11.2016 02:36 0,1 C 99 % 1011,6 hPa 0,0 l/m 1,9 km/h (1 Bft) S-SW 211 0 min 0,000 mm 0,0 UV-I 0 W/m -0,0 C 0,1 C 4,8 km/h (1 Bft) 100,00 %
21.11.2016 02:38 0,1 C 99 % 1011,5 hPa 0,0 l/m 5,5 km/h (1 Bft) SW 235 0 min 0,000 mm 0,0 UV-I 0 W/m -0,0 C 0,1 C 8,0 km/h (2 Bft) 100,00 %
21.11.2016 02:40 0,1 C 99 % 1011,6 hPa 0,0 l/m 4,3 km/h (1 Bft) W-SW 242 0 min 0,000 mm 0,0 UV-I 0 W/m -0,0 C 0,1 C 6,4 km/h (2 Bft) 98,11 %
21.11.2016 02:42 0,1 C 99 % 1011,6 hPa 0,0 l/m 5,8 km/h (2 Bft) SW 233 0 min 0,000 mm 0,0 UV-I 0 W/m -0,0 C 0,1 C 8,0 km/h (2 Bft) 100,00 %
21.11.2016 02:44 0,1 C 99 % 1011,6 hPa 0,0 l/m 6,6 km/h (2 Bft) SW 232 0 min 0,000 mm 0,0 UV-I 0 W/m -0,0 C -0,1 C 8,0 km/h (2 Bft) 100,00 %
21.11.2016 02:46 0,1 C 99 % 1011,5 hPa 0,0 l/m 3,5 km/h (1 Bft) SW 232 0 min 0,000 mm 0,0 UV-I 0 W/m -0,0 C 0,1 C 4,8 km/h (1 Bft) 100,00 %
21.11.2016 02:48 0,1 C 99 % 1011,4 hPa 0,0 l/m 2,2 km/h (1 Bft) S-SO 165 0 min 0,000 mm 0,0 UV-I 0 W/m -0,0 C 0,1 C 6,4 km/h (2 Bft) 96,23 %
21.11.2016 02:50 0,0 C 99 % 1011,4 hPa 0,0 l/m 3,8 km/h (1 Bft) S-SO 150 0 min 0,000 mm 0,0 UV-I 0 W/m -0,1 C 0,0 C 4,8 km/h (1 Bft) 98,00 %
21.11.2016 02:52 -0,1 C 99 % 1011,4 hPa 0,0 l/m 1,3 km/h (1 Bft) S-SO 150 0 min 0,000 mm 0,0 UV-I 0 W/m -0,2 C -0,1 C 3,2 km/h (1 Bft) 100,00 %
21.11.2016 02:54 -0,1 C 99 % 1011,6 hPa 0,0 l/m 2,6 km/h (1 Bft) S-SO 150 0 min 0,000 mm 0,0 UV-I 0 W/m -0,2 C -0,1 C 3,2 km/h (1 Bft) 100,00 %
21.11.2016 02:56 -0,1 C 99 % 1011,6 hPa 0,0 l/m 3,6 km/h (1 Bft) S 171 0 min 0,000 mm 0,0 UV-I 0 W/m -0,2 C -0,1 C 6,4 km/h (2 Bft) 100,00 %
21.11.2016 02:58 -0,1 C 99 % 1011,6 hPa 0,0 l/m 3,5 km/h (1 Bft) S 186 0 min 0,000 mm 0,0 UV-I 0 W/m -0,2 C -0,1 C 4,8 km/h (1 Bft) 100,00 %
21.11.2016 03:00 -0,1 C 99 % 1011,4 hPa 0,0 l/m 3,2 km/h (1 Bft) S 187 0 min 0,000 mm 0,0 UV-I 0 W/m -0,2 C -0,1 C 6,4 km/h (2 Bft) 98,00 %
21.11.2016 03:02 -0,1 C 99 % 1011,4 hPa 0,0 l/m 0,6 km/h (0 Bft) S 187 0 min 0,000 mm 0,0 UV-I 0 W/m -0,2 C -0,1 C 1,6 km/h (1 Bft) 100,00 %
21.11.2016 03:04 -0,2 C 99 % 1011,4 hPa 0,0 l/m 1,2 km/h (1 Bft) S 187 0 min 0,000 mm 0,0 UV-I 0 W/m -0,3 C -0,2 C 3,2 km/h (1 Bft) 97,06 %
21.11.2016 03:06 -0,2 C 99 % 1011,4 hPa 0,0 l/m 2,9 km/h (1 Bft) S 187 0 min 0,000 mm 0,0 UV-I 0 W/m -0,3 C -0,2 C 4,8 km/h (1 Bft) 100,00 %
21.11.2016 03:08 -0,2 C 99 % 1011,4 hPa 0,0 l/m 3,8 km/h (1 Bft) S-SW 213 0 min 0,000 mm 0,0 UV-I 0 W/m -0,3 C -0,2 C 4,8 km/h (1 Bft) 100,00 %
21.11.2016 03:10 -0,2 C 99 % 1011,4 hPa 0,0 l/m 3,5 km/h (1 Bft) S-SW 213 0 min 0,000 mm 0,0 UV-I 0 W/m -0,3 C -0,2 C 4,8 km/h (1 Bft) 100,00 %
21.11.2016 03:12 -0,2 C 99 % 1011,4 hPa 0,0 l/m 2,9 km/h (1 Bft) SW 214 0 min 0,000 mm 0,0 UV-I 0 W/m -0,3 C -0,2 C 4,8 km/h (1 Bft) 100,00 %
21.11.2016 03:14 -0,2 C 99 % 1011,4 hPa 0,0 l/m 1,2 km/h (1 Bft) SW 214 0 min 0,000 mm 0,0 UV-I 0 W/m -0,3 C -0,2 C 3,2 km/h (1 Bft) 100,00 %
21.11.2016 03:16 -0,2 C 99 % 1011,4 hPa 0,0 l/m 5,2 km/h (1 Bft) W-SW 238 0 min 0,000 mm 0,0 UV-I 0 W/m -0,3 C -0,2 C 8,0 km/h (2 Bft) 100,00 %
21.11.2016 03:18 -0,2 C 99 % 1011,5 hPa 0,0 l/m 5,3 km/h (1 Bft) W-SW 248 0 min 0,000 mm 0,0 UV-I 0 W/m -0,3 C -0,2 C 8,0 km/h (2 Bft) 100,00 %
21.11.2016 03:20 -0,2 C 99 % 1011,4 hPa 0,0 l/m 3,3 km/h (1 Bft) W-SW 248 0 min 0,000 mm 0,0 UV-I 0 W/m -0,3 C -0,2 C 6,4 km/h (2 Bft) 100,00 %
21.11.2016 03:22 -0,2 C 99 % 1011,3 hPa 0,0 l/m 1,3 km/h (1 Bft) W-SW 248 0 min 0,000 mm 0,0 UV-I 0 W/m -0,3 C -0,2 C 3,2 km/h (1 Bft) 100,00 %
21.11.2016 03:24 -0,2 C 99 % 1011,3 hPa 0,0 l/m 0,6 km/h (0 Bft) W-SW 248 0 min 0,000 mm 0,0 UV-I 0 W/m -0,3 C -0,2 C 1,6 km/h (1 Bft) 100,00 %
21.11.2016 03:26 -0,2 C 99 % 1011,3 hPa 0,0 l/m 1,2 km/h (1 Bft) SW 214 0 min 0,000 mm 0,0 UV-I 0 W/m -0,3 C -0,2 C 3,2 km/h (1 Bft) 100,00 %
21.11.2016 03:28 -0,2 C 99 % 1011,2 hPa 0,0 l/m 1,1 km/h (1 Bft) S-SW 212 0 min 0,000 mm 0,0 UV-I 0 W/m -0,3 C -0,2 C 3,2 km/h (1 Bft) 100,00 %
21.11.2016 03:30 -0,2 C 99 % 1011,2 hPa 0,0 l/m 0,0 km/h (0 Bft) S-SW 212 0 min 0,000 mm 0,0 UV-I 0 W/m -0,3 C -0,2 C 0,0 km/h (0 Bft) 100,00 %
21.11.2016 03:32 -0,2 C 99 % 1011,3 hPa 0,0 l/m 1,6 km/h (1 Bft) S-SW 212 0 min 0,000 mm 0,0 UV-I 0 W/m -0,3 C -0,2 C 3,2 km/h (1 Bft) 97,22 %
21.11.2016 03:34 -0,2 C 99 % 1011,2 hPa 0,0 l/m 3,2 km/h (1 Bft) S-SW 212 0 min 0,000 mm 0,0 UV-I 0 W/m -0,3 C -0,2 C 4,8 km/h (1 Bft) 100,00 %
21.11.2016 03:36 -0,2 C 99 % 1011,1 hPa 0,0 l/m 0,4 km/h (0 Bft) S-SW 212 0 min 0,000 mm 0,0 UV-I 0 W/m -0,3 C -0,2 C 1,6 km/h (1 Bft) 100,00 %
21.11.2016 03:38 -0,3 C 99 % 1011,1 hPa 0,0 l/m 0,1 km/h (0 Bft) S-SW 212 0 min 0,000 mm 0,0 UV-I 0 W/m -0,4 C -0,3 C 1,6 km/h (1 Bft) 100,00 %
21.11.2016 03:40 -0,3 C 99 % 1011,2 hPa 0,0 l/m 0,8 km/h (0 Bft) S-SW 212 0 min 0,000 mm 0,0 UV-I 0 W/m -0,4 C -0,3 C 3,2 km/h (1 Bft) 100,00 %
21.11.2016 03:42 -0,3 C 99 % 1011,2 hPa 0,0 l/m 2,0 km/h (1 Bft) S-SW 212 0 min 0,000 mm 0,0 UV-I 0 W/m -0,4 C -0,3 C 3,2 km/h (1 Bft) 100,00 %
21.11.2016 03:44 -0,3 C 99 % 1011,3 hPa 0,0 l/m 3,6 km/h (1 Bft) SW 221 0 min 0,000 mm 0,0 UV-I 0 W/m -0,4 C -0,3 C 6,4 km/h (2 Bft) 98,11 %
21.11.2016 03:46 -0,3 C 99 % 1011,3 hPa 0,0 l/m 5,2 km/h (1 Bft) SW 236 0 min 0,000 mm 0,0 UV-I 0 W/m -0,4 C -0,3 C 6,4 km/h (2 Bft) 100,00 %
21.11.2016 03:48 -0,3 C 99 % 1011,3 hPa 0,0 l/m 5,3 km/h (1 Bft) SW 236 0 min 0,000 mm 0,0 UV-I 0 W/m -0,4 C -0,3 C 6,4 km/h (2 Bft) 100,00 %
21.11.2016 03:50 -0,3 C 99 % 1011,4 hPa 0,0 l/m 4,9 km/h (1 Bft) SW 220 0 min 0,000 mm 0,0 UV-I 0 W/m -0,4 C -0,3 C 8,0 km/h (2 Bft) 100,00 %
21.11.2016 03:52 -0,3 C 99 % 1011,3 hPa 0,0 l/m 4,6 km/h (1 Bft) SW 218 0 min 0,000 mm 0,0 UV-I 0 W/m -0,4 C -0,3 C 6,4 km/h (2 Bft) 98,00 %
21.11.2016 03:54 -0,3 C 99 % 1011,3 hPa 0,0 l/m 2,4 km/h (1 Bft) SW 218 0 min 0,000 mm 0,0 UV-I 0 W/m -0,4 C -0,3 C 3,2 km/h (1 Bft) 100,00 %
21.11.2016 03:56 -0,3 C 99 % 1011,3 hPa 0,0 l/m 2,8 km/h (1 Bft) SW 218 0 min 0,000 mm 0,0 UV-I 0 W/m -0,4 C -0,3 C 3,2 km/h (1 Bft) 100,00 %
21.11.2016 03:58 -0,3 C 99 % 1011,2 hPa 0,0 l/m 3,8 km/h (1 Bft) SW 217 0 min 0,000 mm 0,0 UV-I 0 W/m -0,4 C -0,3 C 6,4 km/h (2 Bft) 100,00 %
21.11.2016 04:00 -0,3 C 99 % 1011,2 hPa 0,0 l/m 1,3 km/h (1 Bft) S-SW 205 0 min 0,000 mm 0,0 UV-I 0 W/m -0,4 C -0,3 C 3,2 km/h (1 Bft) 100,00 %
21.11.2016 04:02 -0,3 C 99 % 1011,2 hPa 0,0 l/m 3,2 km/h (1 Bft) S-SW 196 0 min 0,000 mm 0,0 UV-I 0 W/m -0,4 C -0,3 C 4,8 km/h (1 Bft) 100,00 %
21.11.2016 04:04 -0,3 C 99 % 1011,2 hPa 0,0 l/m 3,6 km/h (1 Bft) S-SW 196 0 min 0,000 mm 0,0 UV-I 0 W/m -0,4 C -0,3 C 6,4 km/h (2 Bft) 100,00 %
21.11.2016 04:06 -0,3 C 99 % 1011,3 hPa 0,0 l/m 5,0 km/h (1 Bft) S-SW 199 0 min 0,000 mm 0,0 UV-I 0 W/m -0,4 C -0,3 C 6,4 km/h (2 Bft) 95,74 %
21.11.2016 04:08 -0,3 C 99 % 1011,3 hPa 0,0 l/m 5,4 km/h (1 Bft) S-SW 207 0 min 0,000 mm 0,0 UV-I 0 W/m -0,4 C -0,3 C 8,0 km/h (2 Bft) 97,87 %
21.11.2016 04:10 -0,3 C 99 % 1011,3 hPa 0,0 l/m 5,5 km/h (1 Bft) SW 227 0 min 0,000 mm 0,0 UV-I 0 W/m -0,4 C -0,3 C 8,0 km/h (2 Bft) 97,87 %
21.11.2016 04:12 -0,3 C 99 % 1011,4 hPa 0,0 l/m 5,6 km/h (1 Bft) SW 217 0 min 0,000 mm 0,0 UV-I 0 W/m -0,4 C -0,3 C 8,0 km/h (2 Bft) 98,00 %
21.11.2016 04:14 -0,3 C 99 % 1011,3 hPa 0,0 l/m 2,5 km/h (1 Bft) SW 217 0 min 0,000 mm 0,0 UV-I 0 W/m -0,4 C -0,3 C 4,8 km/h (1 Bft) 97,87 %
21.11.2016 04:16 -0,4 C 99 % 1011,1 hPa 0,0 l/m 0,6 km/h (0 Bft) SW 217 0 min 0,000 mm 0,0 UV-I 0 W/m -0,5 C -0,4 C 3,2 km/h (1 Bft) 97,44 %
21.11.2016 04:18 -0,4 C 99 % 1011,1 hPa 0,0 l/m 0,8 km/h (0 Bft) SW 217 0 min 0,000 mm 0,0 UV-I 0 W/m -0,5 C -0,4 C 1,6 km/h (1 Bft) 97,87 %
21.11.2016 04:20 -0,4 C 99 % 1011,1 hPa 0,0 l/m 3,2 km/h (1 Bft) SW 217 0 min 0,000 mm 0,0 UV-I 0 W/m -0,5 C -0,4 C 4,8 km/h (1 Bft) 98,11 %
21.11.2016 04:22 -0,4 C 99 % 1011,1 hPa 0,0 l/m 3,8 km/h (1 Bft) S-SW 211 0 min 0,000 mm 0,0 UV-I 0 W/m -0,5 C -0,4 C 6,4 km/h (2 Bft) 97,37 %
21.11.2016 04:24 -0,4 C 99 % 1011,1 hPa 0,0 l/m 4,6 km/h (1 Bft) S-SW 211 0 min 0,000 mm 0,0 UV-I 0 W/m -0,5 C -0,4 C 6,4 km/h (2 Bft) 95,74 %
21.11.2016 04:26 -0,4 C 99 % 1011,2 hPa 0,0 l/m 5,0 km/h (1 Bft) SW 221 0 min 0,000 mm 0,0 UV-I 0 W/m -0,5 C -0,4 C 6,4 km/h (2 Bft) 95,74 %
21.11.2016 04:28 -0,4 C 99 % 1011,2 hPa 0,0 l/m 4,6 km/h (1 Bft) SW 232 0 min 0,000 mm 0,0 UV-I 0 W/m -0,5 C -0,4 C 6,4 km/h (2 Bft) 98,11 %
21.11.2016 04:30 -0,4 C 99 % 1011,1 hPa 0,0 l/m 1,8 km/h (1 Bft) SW 232 0 min 0,000 mm 0,0 UV-I 0 W/m -0,5 C -0,4 C 3,2 km/h (1 Bft) 98,00 %
21.11.2016 04:32 -0,4 C 99 % 1011,1 hPa 0,0 l/m 1,0 km/h (0 Bft) SW 232 0 min 0,000 mm 0,0 UV-I 0 W/m -0,5 C -0,4 C 3,2 km/h (1 Bft) 97,87 %
21.11.2016 04:34 -0,4 C 99 % 1011,2 hPa 0,0 l/m 3,1 km/h (1 Bft) SW 232 0 min 0,000 mm 0,0 UV-I 0 W/m -0,5 C -0,4 C 4,8 km/h (1 Bft) 97,14 %
21.11.2016 04:36 -0,5 C 99 % 1011,1 hPa 0,0 l/m 3,3 km/h (1 Bft) SW 232 0 min 0,000 mm 0,0 UV-I 0 W/m -0,6 C -0,5 C 4,8 km/h (1 Bft) 98,21 %
21.11.2016 04:38 -0,5 C 99 % 1011,2 hPa 0,0 l/m 2,0 km/h (1 Bft) SW 232 0 min 0,000 mm 0,0 UV-I 0 W/m -0,6 C -0,5 C 3,2 km/h (1 Bft) 98,00 %
21.11.2016 04:40 -0,5 C 99 % 1011,2 hPa 0,0 l/m 3,1 km/h (1 Bft) SW 232 0 min 0,000 mm 0,0 UV-I 0 W/m -0,6 C -0,5 C 4,8 km/h (1 Bft) 95,74 %
21.11.2016 04:42 -0,6 C 99 % 1011,1 hPa 0,0 l/m 1,5 km/h (1 Bft) S 190 0 min 0,000 mm 0,0 UV-I 0 W/m -0,7 C -0,6 C 3,2 km/h (1 Bft) 100,00 %
21.11.2016 04:44 -0,6 C 99 % 1011,0 hPa 0,0 l/m 0,8 km/h (0 Bft) S 189 0 min 0,000 mm 0,0 UV-I 0 W/m -0,7 C -0,6 C 3,2 km/h (1 Bft) 98,21 %
21.11.2016 04:46 -0,6 C 99 % 1011,1 hPa 0,0 l/m 3,1 km/h (1 Bft) S 190 0 min 0,000 mm 0,0 UV-I 0 W/m -0,7 C -0,6 C 4,8 km/h (1 Bft) 100,00 %
21.11.2016 04:48 -0,7 C 99 % 1011,1 hPa 0,0 l/m 4,4 km/h (1 Bft) S-SW 192 0 min 0,000 mm 0,0 UV-I 0 W/m -0,8 C -0,7 C 6,4 km/h (2 Bft) 100,00 %
21.11.2016 04:50 -0,7 C 99 % 1011,1 hPa 0,0 l/m 4,3 km/h (1 Bft) S-SW 192 0 min 0,000 mm 0,0 UV-I 0 W/m -0,8 C -0,7 C 6,4 km/h (2 Bft) 100,00 %
21.11.2016 04:52 -0,7 C 99 % 1011,1 hPa 0,0 l/m 2,1 km/h (1 Bft) S-SW 192 0 min 0,000 mm 0,0 UV-I 0 W/m -0,8 C -0,7 C 4,8 km/h (1 Bft) 100,00 %
21.11.2016 04:54 -0,7 C 99 % 1011,1 hPa 0,0 l/m 2,6 km/h (1 Bft) S-SW 192 0 min 0,000 mm 0,0 UV-I 0 W/m -0,8 C -0,7 C 4,8 km/h (1 Bft) 97,87 %
21.11.2016 04:56 -0,7 C 99 % 1011,1 hPa 0,0 l/m 2,7 km/h (1 Bft) S-SW 192 0 min 0,000 mm 0,0 UV-I 0 W/m -0,8 C -0,7 C 4,8 km/h (1 Bft) 97,44 %
21.11.2016 04:58 -0,7 C 99 % 1011,0 hPa 0,0 l/m 2,4 km/h (1 Bft) S-SW 192 0 min 0,000 mm 0,0 UV-I 0 W/m -0,8 C -0,7 C 3,2 km/h (1 Bft) 100,00 %
21.11.2016 05:00 -0,8 C 99 % 1011,0 hPa 0,0 l/m 0,9 km/h (0 Bft) S-SW 192 0 min 0,000 mm 0,0 UV-I 0 W/m -0,9 C -0,8 C 3,2 km/h (1 Bft) 100,00 %
21.11.2016 05:02 -0,8 C 99 % 1010,8 hPa 0,0 l/m 2,0 km/h (1 Bft) S-SW 192 0 min 0,000 mm 0,0 UV-I 0 W/m -0,9 C -0,8 C 3,2 km/h (1 Bft) 100,00 %
21.11.2016 05:04 -0,8 C 99 % 1010,9 hPa 0,0 l/m 3,3 km/h (1 Bft) S-SW 192 0 min 0,000 mm 0,0 UV-I 0 W/m -0,9 C -0,8 C 4,8 km/h (1 Bft) 100,00 %
21.11.2016 05:06 -0,8 C 99 % 1011,0 hPa 0,0 l/m 0,4 km/h (0 Bft) S-SW 192 0 min 0,000 mm 0,0 UV-I 0 W/m -0,9 C -0,8 C 1,6 km/h (1 Bft) 100,00 %
21.11.2016 05:08 -0,9 C 99 % 1011,0 hPa 0,0 l/m 0,3 km/h (0 Bft) S-SW 192 0 min 0,000 mm 0,0 UV-I 0 W/m -1,0 C -0,9 C 1,6 km/h (1 Bft) 100,00 %
21.11.2016 05:10 -0,9 C 99 % 1011,0 hPa 0,0 l/m 0,9 km/h (0 Bft) S-SW 192 0 min 0,000 mm 0,0 UV-I 0 W/m -1,0 C -0,9 C 1,6 km/h (1 Bft) 100,00 %
21.11.2016 05:12 -0,9 C 99 % 1010,9 hPa 0,0 l/m 0,3 km/h (0 Bft) S-SW 192 0 min 0,000 mm 0,0 UV-I 0 W/m -1,0 C -0,9 C 1,6 km/h (1 Bft) 100,00 %
21.11.2016 05:14 -0,9 C 99 % 1010,9 hPa 0,0 l/m 0,4 km/h (0 Bft) S-SW 192 0 min 0,000 mm 0,0 UV-I 0 W/m -1,0 C -0,9 C 3,2 km/h (1 Bft) 100,00 %
21.11.2016 05:16 -0,9 C 99 % 1011,0 hPa 0,0 l/m 2,6 km/h (1 Bft) S-SW 192 0 min 0,000 mm 0,0 UV-I 0 W/m -1,0 C -0,9 C 3,2 km/h (1 Bft) 98,00 %
21.11.2016 05:18 -0,9 C 99 % 1011,0 hPa 0,0 l/m 2,8 km/h (1 Bft) S-SW 192 0 min 0,000 mm 0,0 UV-I 0 W/m -1,0 C -0,9 C 4,8 km/h (1 Bft) 100,00 %
21.11.2016 05:20 -0,9 C 99 % 1011,0 hPa 0,0 l/m 2,0 km/h (1 Bft) S-SW 192 0 min 0,000 mm 0,0 UV-I 0 W/m -1,0 C -0,9 C 3,2 km/h (1 Bft) 98,11 %
21.11.2016 05:22 -0,9 C 99 % 1010,8 hPa 0,0 l/m 0,8 km/h (0 Bft) S-SW 192 0 min 0,000 mm 0,0 UV-I 0 W/m -1,0 C -0,9 C 3,2 km/h (1 Bft) 100,00 %
21.11.2016 05:24 -0,9 C 99 % 1010,7 hPa 0,0 l/m 3,7 km/h (1 Bft) S 186 0 min 0,000 mm 0,0 UV-I 0 W/m -1,0 C -0,9 C 4,8 km/h (1 Bft) 100,00 %
21.11.2016 05:26 -0,9 C 99 % 1010,7 hPa 0,0 l/m 2,9 km/h (1 Bft) S 169 0 min 0,000 mm 0,0 UV-I 0 W/m -1,0 C -0,9 C 4,8 km/h (1 Bft) 100,00 %
21.11.2016 05:28 -0,9 C 99 % 1010,7 hPa 0,0 l/m 3,0 km/h (1 Bft) S-SO 148 0 min 0,000 mm 0,0 UV-I 0 W/m -1,0 C -0,9 C 6,4 km/h (2 Bft) 100,00 %
21.11.2016 05:30 -0,9 C 99 % 1010,7 hPa 0,0 l/m 3,3 km/h (1 Bft) S-SO 147 0 min 0,000 mm 0,0 UV-I 0 W/m -1,0 C -0,9 C 4,8 km/h (1 Bft) 98,08 %
21.11.2016 05:32 -0,8 C 99 % 1010,8 hPa 0,0 l/m 1,7 km/h (1 Bft) S-SO 147 0 min 0,000 mm 0,0 UV-I 0 W/m -0,9 C -0,8 C 3,2 km/h (1 Bft) 100,00 %
21.11.2016 05:34 -0,8 C 99 % 1010,9 hPa 0,0 l/m 0,1 km/h (0 Bft) S-SO 147 0 min 0,000 mm 0,0 UV-I 0 W/m -0,9 C -0,8 C 1,6 km/h (1 Bft) 100,00 %
21.11.2016 05:36 -0,8 C 99 % 1010,9 hPa 0,0 l/m 0,1 km/h (0 Bft) S-SO 147 0 min 0,000 mm 0,0 UV-I 0 W/m -0,9 C -0,8 C 1,6 km/h (1 Bft) 100,00 %
21.11.2016 05:38 -0,8 C 99 % 1010,9 hPa 0,0 l/m 0,0 km/h (0 Bft) S-SO 147 0 min 0,000 mm 0,0 UV-I 0 W/m -0,9 C -0,8 C 0,0 km/h (0 Bft) 100,00 %
21.11.2016 05:40 -0,7 C 99 % 1010,9 hPa 0,0 l/m 0,4 km/h (0 Bft) S-SO 147 0 min 0,000 mm 0,0 UV-I 0 W/m -0,8 C -0,7 C 1,6 km/h (1 Bft) 100,00 %
21.11.2016 05:42 -0,7 C 99 % 1011,0 hPa 0,0 l/m 2,2 km/h (1 Bft) S-SO 147 0 min 0,000 mm 0,0 UV-I 0 W/m -0,8 C -0,7 C 4,8 km/h (1 Bft) 100,00 %
21.11.2016 05:44 -0,7 C 99 % 1011,0 hPa 0,0 l/m 3,8 km/h (1 Bft) W 262 0 min 0,000 mm 0,0 UV-I 0 W/m -0,8 C -0,7 C 4,8 km/h (1 Bft) 100,00 %
21.11.2016 05:46 -0,8 C 99 % 1011,1 hPa 0,0 l/m 3,4 km/h (1 Bft) W 262 0 min 0,000 mm 0,0 UV-I 0 W/m -0,9 C -0,8 C 4,8 km/h (1 Bft) 100,00 %
21.11.2016 05:48 -0,8 C 99 % 1011,1 hPa 0,0 l/m 2,7 km/h (1 Bft) W 262 0 min 0,000 mm 0,0 UV-I 0 W/m -0,9 C -0,8 C 3,2 km/h (1 Bft) 98,11 %
21.11.2016 05:50 -0,8 C 99 % 1011,0 hPa 0,0 l/m 0,9 km/h (0 Bft) W 262 0 min 0,000 mm 0,0 UV-I 0 W/m -0,9 C -0,8 C 1,6 km/h (1 Bft) 100,00 %
21.11.2016 05:52 -0,7 C 99 % 1011,0 hPa 0,0 l/m 0,0 km/h (0 Bft) W 262 0 min 0,000 mm 0,0 UV-I 0 W/m -0,8 C -0,7 C 0,0 km/h (0 Bft) 95,74 %
21.11.2016 05:54 -0,7 C 99 % 1011,0 hPa 0,0 l/m 0,1 km/h (0 Bft) W 262 0 min 0,000 mm 0,0 UV-I 0 W/m -0,8 C -0,7 C 1,6 km/h (1 Bft) 100,00 %
21.11.2016 05:56 -0,7 C 99 % 1011,0 hPa 0,0 l/m 0,0 km/h (0 Bft) W 262 0 min 0,000 mm 0,0 UV-I 0 W/m -0,8 C -0,7 C 0,0 km/h (0 Bft) 100,00 %
21.11.2016 05:58 -0,7 C 99 % 1011,0 hPa 0,0 l/m 0,7 km/h (0 Bft) W 262 0 min 0,000 mm 0,0 UV-I 0 W/m -0,8 C -0,7 C 1,6 km/h (1 Bft) 97,87 %
21.11.2016 06:00 -0,7 C 99 % 1011,0 hPa 0,0 l/m 2,4 km/h (1 Bft) W 262 0 min 0,000 mm 0,0 UV-I 0 W/m -0,8 C -0,7 C 4,8 km/h (1 Bft) 100,00 %
21.11.2016 06:02 -0,7 C 99 % 1011,0 hPa 0,0 l/m 2,2 km/h (1 Bft) W 262 0 min 0,000 mm 0,0 UV-I 0 W/m -0,8 C -0,7 C 3,2 km/h (1 Bft) 100,00 %
21.11.2016 06:04 -0,7 C 99 % 1011,0 hPa 0,0 l/m 0,5 km/h (0 Bft) W 262 0 min 0,000 mm 0,0 UV-I 0 W/m -0,8 C -0,7 C 1,6 km/h (1 Bft) 98,11 %
21.11.2016 06:06 -0,6 C 99 % 1010,9 hPa 0,0 l/m 0,0 km/h (0 Bft) W 262 0 min 0,000 mm 0,0 UV-I 0 W/m -0,7 C -0,6 C 0,0 km/h (0 Bft) 100,00 %
21.11.2016 06:08 -0,6 C 99 % 1010,9 hPa 0,0 l/m 0,0 km/h (0 Bft) W 262 0 min 0,000 mm 0,0 UV-I 0 W/m -0,7 C -0,6 C 0,0 km/h (0 Bft) 100,00 %
21.11.2016 06:10 -0,6 C 99 % 1011,0 hPa 0,0 l/m 0,6 km/h (0 Bft) W 262 0 min 0,000 mm 0,0 UV-I 0 W/m -0,7 C -0,6 C 1,6 km/h (1 Bft) 95,74 %
21.11.2016 06:12 -0,6 C 99 % 1011,0 hPa 0,0 l/m 1,5 km/h (1 Bft) W 262 0 min 0,000 mm 0,0 UV-I 0 W/m -0,7 C -0,6 C 3,2 km/h (1 Bft) 96,43 %
21.11.2016 06:14 -0,6 C 99 % 1010,9 hPa 0,0 l/m 0,3 km/h (0 Bft) W 262 0 min 0,000 mm 0,0 UV-I 0 W/m -0,7 C -0,6 C 1,6 km/h (1 Bft) 97,56 %
21.11.2016 06:16 -0,6 C 99 % 1010,9 hPa 0,0 l/m 0,2 km/h (0 Bft) W 262 0 min 0,000 mm 0,0 UV-I 0 W/m -0,7 C -0,6 C 1,6 km/h (1 Bft) 96,00 %
21.11.2016 06:18 -0,7 C 99 % 1010,9 hPa 0,0 l/m 1,2 km/h (1 Bft) W-SW 248 0 min 0,000 mm 0,0 UV-I 0 W/m -0,8 C -0,7 C 3,2 km/h (1 Bft) 97,44 %
21.11.2016 06:20 -0,7 C 99 % 1010,9 hPa 0,0 l/m 1,2 km/h (1 Bft) W-SW 247 0 min 0,000 mm 0,0 UV-I 0 W/m -0,8 C -0,7 C 3,2 km/h (1 Bft) 96,23 %
21.11.2016 06:22 -0,7 C 99 % 1010,9 hPa 0,0 l/m 2,5 km/h (1 Bft) W-SW 247 0 min 0,000 mm 0,0 UV-I 0 W/m -0,8 C -0,7 C 4,8 km/h (1 Bft) 98,00 %
21.11.2016 06:24 -0,7 C 99 % 1010,9 hPa 0,0 l/m 2,0 km/h (1 Bft) W-SW 247 0 min 0,000 mm 0,0 UV-I 0 W/m -0,8 C -0,7 C 3,2 km/h (1 Bft) 95,74 %
21.11.2016 06:26 -0,7 C 99 % 1010,9 hPa 0,0 l/m 1,0 km/h (0 Bft) W-SW 247 0 min 0,000 mm 0,0 UV-I 0 W/m -0,8 C -0,7 C 1,6 km/h (1 Bft) 95,74 %
21.11.2016 06:28 -0,7 C 99 % 1010,9 hPa 0,0 l/m 0,3 km/h (0 Bft) W-SW 247 0 min 0,000 mm 0,0 UV-I 0 W/m -0,8 C -0,7 C 1,6 km/h (1 Bft) 94,74 %
21.11.2016 06:30 -0,7 C 99 % 1010,8 hPa 0,0 l/m 0,0 km/h (0 Bft) W-SW 247 0 min 0,000 mm 0,0 UV-I 0 W/m -0,8 C -0,7 C 1,6 km/h (1 Bft) 98,11 %
21.11.2016 06:32 -0,8 C 99 % 1010,8 hPa 0,0 l/m 1,6 km/h (1 Bft) W-SW 247 0 min 0,000 mm 0,0 UV-I 0 W/m -0,9 C -0,8 C 3,2 km/h (1 Bft) 95,74 %
21.11.2016 06:34 -0,8 C 99 % 1010,9 hPa 0,0 l/m 0,1 km/h (0 Bft) W-SW 250 0 min 0,000 mm 0,0 UV-I 0 W/m -0,9 C -0,8 C 1,6 km/h (1 Bft) 97,56 %
21.11.2016 06:36 -0,8 C 99 % 1011,0 hPa 0,0 l/m 3,1 km/h (1 Bft) W 279 0 min 0,000 mm 0,0 UV-I 0 W/m -0,9 C -0,8 C 4,8 km/h (1 Bft) 97,87 %
21.11.2016 06:38 -0,8 C 99 % 1011,0 hPa 0,0 l/m 2,6 km/h (1 Bft) W 279 0 min 0,000 mm 0,0 UV-I 0 W/m -0,9 C -0,8 C 4,8 km/h (1 Bft) 98,00 %
21.11.2016 06:40 -0,8 C 99 % 1011,0 hPa 0,0 l/m 2,1 km/h (1 Bft) W 279 0 min 0,000 mm 0,0 UV-I 0 W/m -0,9 C -0,8 C 4,8 km/h (1 Bft) 96,23 %
21.11.2016 06:42 -0,8 C 99 % 1010,9 hPa 0,0 l/m 0,0 km/h (0 Bft) W 279 0 min 0,000 mm 0,0 UV-I 0 W/m -0,9 C -0,8 C 1,6 km/h (1 Bft) 97,87 %
21.11.2016 06:44 -0,8 C 99 % 1010,9 hPa 0,0 l/m 0,0 km/h (0 Bft) W 279 0 min 0,000 mm 0,0 UV-I 0 W/m -0,9 C -0,8 C 0,0 km/h (0 Bft) 100,00 %
21.11.2016 06:46 -0,8 C 99 % 1011,0 hPa 0,0 l/m 1,7 km/h (1 Bft) W 279 0 min 0,000 mm 0,0 UV-I 0 W/m -0,9 C -0,8 C 4,8 km/h (1 Bft) 95,74 %
21.11.2016 06:48 -0,8 C 99 % 1011,1 hPa 0,0 l/m 2,7 km/h (1 Bft) W 279 0 min 0,000 mm 0,0 UV-I 0 W/m -0,9 C -0,8 C 4,8 km/h (1 Bft) 97,87 %
21.11.2016 06:50 -0,8 C 99 % 1011,1 hPa 0,0 l/m 4,1 km/h (1 Bft) W 278 0 min 0,000 mm 0,0 UV-I 0 W/m -0,9 C -0,8 C 6,4 km/h (2 Bft) 98,00 %
21.11.2016 06:52 -0,8 C 99 % 1011,1 hPa 0,0 l/m 2,5 km/h (1 Bft) W 278 0 min 0,000 mm 0,0 UV-I 0 W/m -0,9 C -0,8 C 4,8 km/h (1 Bft) 100,00 %
21.11.2016 06:54 -0,8 C 99 % 1011,0 hPa 0,0 l/m 0,5 km/h (0 Bft) W 278 0 min 0,000 mm 0,0 UV-I 0 W/m -0,9 C -0,8 C 3,2 km/h (1 Bft) 97,87 %
21.11.2016 06:56 -0,8 C 99 % 1011,0 hPa 0,0 l/m 0,0 km/h (0 Bft) W 278 0 min 0,000 mm 0,0 UV-I 0 W/m -0,9 C -0,8 C 0,0 km/h (0 Bft) 100,00 %
21.11.2016 06:58 -0,8 C 99 % 1011,0 hPa 0,0 l/m 0,0 km/h (0 Bft) W 278 0 min 0,000 mm 0,0 UV-I 0 W/m -0,9 C -0,8 C 0,0 km/h (0 Bft) 100,00 %
21.11.2016 07:00 -0,8 C 99 % 1011,0 hPa 0,0 l/m 0,1 km/h (0 Bft) W 278 0 min 0,000 mm 0,0 UV-I 0 W/m -0,9 C -0,8 C 1,6 km/h (1 Bft) 100,00 %
21.11.2016 07:02 -0,8 C 99 % 1010,9 hPa 0,0 l/m 1,6 km/h (1 Bft) W 280 0 min 0,000 mm 0,0 UV-I 0 W/m -0,9 C -0,8 C 4,8 km/h (1 Bft) 98,00 %
21.11.2016 07:04 -0,8 C 99 % 1010,9 hPa 0,0 l/m 3,7 km/h (1 Bft) W-NW 284 0 min 0,000 mm 0,0 UV-I 0 W/m -0,9 C -0,8 C 4,8 km/h (1 Bft) 100,00 %
21.11.2016 07:06 -0,9 C 99 % 1010,9 hPa 0,0 l/m 2,4 km/h (1 Bft) W-NW 285 0 min 0,000 mm 0,0 UV-I 0 W/m -1,0 C -0,9 C 3,2 km/h (1 Bft) 100,00 %
21.11.2016 07:08 -0,9 C 99 % 1010,9 hPa 0,0 l/m 1,9 km/h (1 Bft) W-NW 285 0 min 0,000 mm 0,0 UV-I 0 W/m -1,0 C -0,9 C 3,2 km/h (1 Bft) 97,56 %
21.11.2016 07:10 -0,9 C 99 % 1011,0 hPa 0,0 l/m 0,3 km/h (0 Bft) W-NW 285 0 min 0,000 mm 0,0 UV-I 0 W/m -1,0 C -0,9 C 3,2 km/h (1 Bft) 100,00 %
21.11.2016 07:12 -0,9 C 99 % 1011,0 hPa 0,0 l/m 0,0 km/h (0 Bft) W-NW 285 0 min 0,000 mm 0,0 UV-I 4 W/m -1,0 C -0,9 C 0,0 km/h (0 Bft) 100,00 %
21.11.2016 07:14 -0,9 C 99 % 1010,9 hPa 0,0 l/m 0,6 km/h (0 Bft) W-NW 285 0 min 0,000 mm 0,0 UV-I 5 W/m -1,0 C -0,9 C 3,2 km/h (1 Bft) 100,00 %
21.11.2016 07:16 -1,0 C 99 % 1010,9 hPa 0,0 l/m 1,4 km/h (1 Bft) W-NW 285 0 min 0,000 mm 0,0 UV-I 5 W/m -1,1 C -1,0 C 3,2 km/h (1 Bft) 94,74 %
21.11.2016 07:18 -1,0 C 99 % 1010,9 hPa 0,0 l/m 1,2 km/h (1 Bft) W-NW 285 0 min 0,000 mm 0,0 UV-I 5 W/m -1,1 C -1,0 C 3,2 km/h (1 Bft) 100,00 %
21.11.2016 07:20 -1,0 C 99 % 1010,8 hPa 0,0 l/m 1,3 km/h (1 Bft) W-NW 285 0 min 0,000 mm 0,0 UV-I 5 W/m -1,1 C -1,0 C 1,6 km/h (1 Bft) 93,62 %
21.11.2016 07:22 -1,1 C 99 % 1010,8 hPa 0,0 l/m 0,2 km/h (0 Bft) W-NW 285 0 min 0,000 mm 0,0 UV-I 7 W/m -1,2 C -1,1 C 1,6 km/h (1 Bft) 100,00 %
21.11.2016 07:24 -1,1 C 99 % 1010,9 hPa 0,0 l/m 0,0 km/h (0 Bft) W-NW 285 0 min 0,000 mm 0,0 UV-I 7 W/m -1,2 C -1,1 C 0,0 km/h (0 Bft) 100,00 %
21.11.2016 07:26 -1,1 C 99 % 1010,9 hPa 0,0 l/m 0,0 km/h (0 Bft) W-NW 285 0 min 0,000 mm 0,0 UV-I 7 W/m -1,2 C -1,1 C 0,0 km/h (0 Bft) 100,00 %
21.11.2016 07:28 -1,1 C 99 % 1011,0 hPa 0,0 l/m 0,0 km/h (0 Bft) W-NW 285 0 min 0,000 mm 0,0 UV-I 7 W/m -1,2 C -1,1 C 0,0 km/h (0 Bft) 100,00 %
21.11.2016 07:30 -1,1 C 99 % 1011,1 hPa 0,0 l/m 1,5 km/h (1 Bft) W-NW 285 0 min 0,000 mm 0,0 UV-I 9 W/m -1,2 C -1,1 C 3,2 km/h (1 Bft) 97,87 %
21.11.2016 07:32 -1,1 C 99 % 1011,2 hPa 0,0 l/m 3,3 km/h (1 Bft) W-NW 285 0 min 0,000 mm 0,0 UV-I 9 W/m -1,2 C -1,1 C 4,8 km/h (1 Bft) 100,00 %
21.11.2016 07:34 -1,1 C 99 % 1011,2 hPa 0,0 l/m 2,6 km/h (1 Bft) W-NW 285 0 min 0,000 mm 0,0 UV-I 9 W/m -1,2 C -1,1 C 4,8 km/h (1 Bft) 100,00 %
21.11.2016 07:36 -1,1 C 99 % 1011,0 hPa 0,0 l/m 1,8 km/h (1 Bft) W-NW 285 0 min 0,000 mm 0,0 UV-I 11 W/m -1,2 C -1,1 C 4,8 km/h (1 Bft) 97,87 %
21.11.2016 07:38 -1,1 C 99 % 1010,9 hPa 0,0 l/m 0,6 km/h (0 Bft) W-NW 285 0 min 0,000 mm 0,0 UV-I 11 W/m -1,2 C -1,1 C 1,6 km/h (1 Bft) 100,00 %
21.11.2016 07:40 -1,1 C 99 % 1010,9 hPa 0,0 l/m 0,0 km/h (0 Bft) W-NW 285 0 min 0,000 mm 0,0 UV-I 11 W/m -1,2 C -1,1 C 1,6 km/h (1 Bft) 100,00 %
21.11.2016 07:42 -1,1 C 99 % 1010,9 hPa 0,0 l/m 0,1 km/h (0 Bft) W-NW 285 0 min 0,000 mm 0,0 UV-I 13 W/m -1,2 C -1,1 C 1,6 km/h (1 Bft) 100,00 %
21.11.2016 07:44 -1,1 C 99 % 1011,0 hPa 0,0 l/m 0,1 km/h (0 Bft) W-NW 285 0 min 0,000 mm 0,0 UV-I 17 W/m -1,2 C -1,1 C 1,6 km/h (1 Bft) 97,37 %
21.11.2016 07:46 -1,1 C 99 % 1011,0 hPa 0,0 l/m 0,1 km/h (0 Bft) W-NW 285 0 min 0,000 mm 0,0 UV-I 15 W/m -1,2 C -1,1 C 1,6 km/h (1 Bft) 97,73 %
21.11.2016 07:48 -1,1 C 99 % 1010,9 hPa 0,0 l/m 0,3 km/h (0 Bft) W-NW 285 0 min 0,000 mm 0,0 UV-I 12 W/m -1,2 C -1,1 C 1,6 km/h (1 Bft) 100,00 %
21.11.2016 07:50 -1,2 C 99 % 1010,9 hPa 0,0 l/m 1,4 km/h (1 Bft) W-NW 285 0 min 0,000 mm 0,0 UV-I 14 W/m -1,3 C -1,2 C 3,2 km/h (1 Bft) 100,00 %
21.11.2016 07:52 -1,2 C 99 % 1011,0 hPa 0,0 l/m 0,3 km/h (0 Bft) W-NW 285 0 min 0,000 mm 0,0 UV-I 16 W/m -1,3 C -1,2 C 1,6 km/h (1 Bft) 100,00 %
21.11.2016 07:54 -1,2 C 99 % 1010,9 hPa 0,0 l/m 0,5 km/h (0 Bft) W-NW 285 0 min 0,000 mm 0,0 UV-I 25 W/m -1,3 C -1,2 C 3,2 km/h (1 Bft) 100,00 %
21.11.2016 07:56 -1,2 C 99 % 1010,8 hPa 0,0 l/m 0,8 km/h (0 Bft) W-NW 286 0 min 0,000 mm 0,0 UV-I 22 W/m -1,3 C -1,2 C 3,2 km/h (1 Bft) 100,00 %
21.11.2016 07:58 -1,2 C 99 % 1010,7 hPa 0,0 l/m 3,6 km/h (1 Bft) NW 313 0 min 0,000 mm 0,0 UV-I 25 W/m -1,3 C -1,2 C 4,8 km/h (1 Bft) 100,00 %
21.11.2016 08:00 -1,2 C 99 % 1010,6 hPa 0,0 l/m 1,8 km/h (1 Bft) NW 326 0 min 0,000 mm 0,0 UV-I 32 W/m -1,3 C -1,2 C 3,2 km/h (1 Bft) 98,00 %
21.11.2016 08:02 -1,2 C 99 % 1010,7 hPa 0,0 l/m 1,2 km/h (1 Bft) NW 326 0 min 0,000 mm 0,0 UV-I 35 W/m -1,3 C -1,2 C 3,2 km/h (1 Bft) 94,29 %
21.11.2016 08:04 -1,2 C 99 % 1010,8 hPa 0,0 l/m 0,9 km/h (0 Bft) NW 326 0 min 0,000 mm 0,0 UV-I 34 W/m -1,3 C -1,2 C 1,6 km/h (1 Bft) 98,00 %
21.11.2016 08:06 -1,2 C 99 % 1010,8 hPa 0,0 l/m 1,5 km/h (1 Bft) NW 326 0 min 0,000 mm 0,0 UV-I 35 W/m -1,3 C -1,2 C 3,2 km/h (1 Bft) 100,00 %
21.11.2016 08:08 -1,2 C 99 % 1010,8 hPa 0,0 l/m 0,7 km/h (0 Bft) NW 326 0 min 0,000 mm 0,0 UV-I 35 W/m -1,3 C -1,2 C 1,6 km/h (1 Bft) 100,00 %
21.11.2016 08:10 -1,3 C 99 % 1010,8 hPa 0,0 l/m 0,4 km/h (0 Bft) NW 326 0 min 0,000 mm 0,0 UV-I 40 W/m -1,4 C -1,3 C 1,6 km/h (1 Bft) 94,00 %
21.11.2016 08:12 -1,3 C 99 % 1010,8 hPa 0,0 l/m 1,1 km/h (1 Bft) NW 326 0 min 0,000 mm 0,0 UV-I 41 W/m -1,4 C -1,3 C 3,2 km/h (1 Bft) 98,00 %
21.11.2016 08:14 -1,3 C 99 % 1010,7 hPa 0,0 l/m 1,9 km/h (1 Bft) NW 326 0 min 0,000 mm 0,0 UV-I 48 W/m -1,4 C -1,3 C 3,2 km/h (1 Bft) 97,44 %
21.11.2016 08:16 -1,3 C 99 % 1010,7 hPa 0,0 l/m 1,7 km/h (1 Bft) NW 326 0 min 0,000 mm 0,0 UV-I 51 W/m -1,4 C -1,3 C 3,2 km/h (1 Bft) 98,00 %
21.11.2016 08:18 -1,3 C 99 % 1010,7 hPa 0,0 l/m 2,4 km/h (1 Bft) N 355 0 min 0,000 mm 0,0 UV-I 52 W/m -1,4 C -1,3 C 3,2 km/h (1 Bft) 96,23 %
21.11.2016 08:20 -1,3 C 99 % 1010,6 hPa 0,0 l/m 3,2 km/h (1 Bft) N 360 0 min 0,000 mm 0,0 UV-I 57 W/m -1,4 C -1,3 C 4,8 km/h (1 Bft) 97,87 %
21.11.2016 08:22 -1,3 C 99 % 1010,5 hPa 0,0 l/m 3,4 km/h (1 Bft) NO 54 0 min 0,000 mm 0,0 UV-I 57 W/m -1,4 C -1,3 C 4,8 km/h (1 Bft) 97,87 %
21.11.2016 08:24 -1,3 C 99 % 1010,6 hPa 0,0 l/m 4,7 km/h (1 Bft) O 83 0 min 0,000 mm 0,0 UV-I 60 W/m -1,4 C -1,3 C 6,4 km/h (2 Bft) 97,37 %
21.11.2016 08:26 -1,2 C 98 % 1010,5 hPa 0,0 l/m 3,6 km/h (1 Bft) O-NO 74 0 min 0,000 mm 0,0 UV-I 71 W/m -1,5 C -1,2 C 6,4 km/h (2 Bft) 94,34 %
21.11.2016 08:28 -1,2 C 99 % 1010,5 hPa 0,0 l/m 1,7 km/h (1 Bft) O-NO 74 0 min 0,000 mm 0,0 UV-I 78 W/m -1,3 C -1,2 C 3,2 km/h (1 Bft) 97,56 %
21.11.2016 08:30 -1,2 C 99 % 1010,6 hPa 0,0 l/m 0,0 km/h (0 Bft) O-NO 74 0 min 0,000 mm 0,0 UV-I 71 W/m -1,3 C -1,2 C 0,0 km/h (0 Bft) 98,00 %
21.11.2016 08:32 -1,1 C 99 % 1010,6 hPa 0,0 l/m 0,0 km/h (0 Bft) O-NO 74 0 min 0,000 mm 0,0 UV-I 83 W/m -1,2 C -1,1 C 0,0 km/h (0 Bft) 95,12 %
21.11.2016 08:34 -1,2 C 99 % 1010,6 hPa 0,0 l/m 0,6 km/h (0 Bft) O-NO 74 0 min 0,000 mm 0,0 UV-I 81 W/m -1,3 C -1,2 C 1,6 km/h (1 Bft) 98,00 %
21.11.2016 08:36 -1,1 C 99 % 1010,7 hPa 0,0 l/m 1,0 km/h (0 Bft) O-NO 74 0 min 0,000 mm 0,0 UV-I 65 W/m -1,2 C -1,1 C 1,6 km/h (1 Bft) 97,87 %
21.11.2016 08:38 -1,1 C 99 % 1010,6 hPa 0,0 l/m 1,7 km/h (1 Bft) O-NO 74 0 min 0,000 mm 0,0 UV-I 62 W/m -1,2 C -1,1 C 3,2 km/h (1 Bft) 98,00 %
21.11.2016 08:40 -1,1 C 99 % 1010,6 hPa 0,0 l/m 1,8 km/h (1 Bft) O-NO 74 0 min 0,000 mm 0,0 UV-I 63 W/m -1,2 C -1,1 C 3,2 km/h (1 Bft) 97,87 %
21.11.2016 08:42 -1,1 C 99 % 1010,7 hPa 0,0 l/m 1,0 km/h (0 Bft) O 84 0 min 0,000 mm 0,0 UV-I 79 W/m -1,2 C -1,1 C 3,2 km/h (1 Bft) 97,73 %
21.11.2016 08:44 -1,1 C 99 % 1010,7 hPa 0,0 l/m 0,0 km/h (0 Bft) O 84 2 min 0,000 mm 0,0 UV-I 102 W/m -1,2 C -1,1 C 0,0 km/h (0 Bft) 97,87 %
21.11.2016 08:46 -1,0 C 99 % 1010,7 hPa 0,0 l/m 0,2 km/h (0 Bft) O 84 0 min 0,000 mm 0,0 UV-I 101 W/m -1,1 C -1,0 C 1,6 km/h (1 Bft) 98,00 %
21.11.2016 08:48 -1,0 C 99 % 1010,7 hPa 0,0 l/m 0,8 km/h (0 Bft) O-NO 68 0 min 0,000 mm 0,0 UV-I 92 W/m -1,1 C -1,0 C 1,6 km/h (1 Bft) 100,00 %
21.11.2016 08:50 -0,9 C 99 % 1010,8 hPa 0,0 l/m 1,6 km/h (1 Bft) W-NW 302 0 min 0,000 mm 0,0 UV-I 90 W/m -1,0 C -0,9 C 4,8 km/h (1 Bft) 95,83 %
21.11.2016 08:52 -0,9 C 99 % 1010,7 hPa 0,0 l/m 2,7 km/h (1 Bft) W-NW 297 0 min 0,000 mm 0,0 UV-I 84 W/m -1,0 C -0,9 C 4,8 km/h (1 Bft) 100,00 %
21.11.2016 08:54 -0,9 C 99 % 1010,7 hPa 0,0 l/m 1,6 km/h (1 Bft) W-NW 297 0 min 0,000 mm 0,0 UV-I 73 W/m -1,0 C -0,9 C 3,2 km/h (1 Bft) 100,00 %
21.11.2016 08:56 -0,9 C 99 % 1010,7 hPa 0,0 l/m 0,3 km/h (0 Bft) W-NW 297 0 min 0,000 mm 0,0 UV-I 82 W/m -1,0 C -0,9 C 1,6 km/h (1 Bft) 100,00 %
21.11.2016 08:58 -0,9 C 99 % 1010,8 hPa 0,0 l/m 1,6 km/h (1 Bft) W-NW 297 0 min 0,000 mm 0,0 UV-I 99 W/m -1,0 C -0,9 C 3,2 km/h (1 Bft) 100,00 %
21.11.2016 09:00 -0,8 C 99 % 1010,7 hPa 0,0 l/m 0,9 km/h (0 Bft) W-NW 297 0 min 0,000 mm 0,0 UV-I 90 W/m -0,9 C -0,8 C 3,2 km/h (1 Bft) 96,00 %
21.11.2016 09:02 -0,7 C 99 % 1010,8 hPa 0,0 l/m 0,0 km/h (0 Bft) W-NW 297 2 min 0,025 mm 0,0 UV-I 123 W/m -0,8 C -0,7 C 0,0 km/h (0 Bft) 100,00 %
21.11.2016 09:04 -0,7 C 99 % 1010,7 hPa 0,0 l/m 0,0 km/h (0 Bft) W-NW 297 2 min 0,000 mm 0,0 UV-I 154 W/m -0,8 C -0,7 C 1,6 km/h (1 Bft) 100,00 %
21.11.2016 09:06 -0,7 C 99 % 1010,7 hPa 0,0 l/m 1,6 km/h (1 Bft) W-NW 297 2 min 0,000 mm 0,0 UV-I 170 W/m -0,8 C -0,7 C 3,2 km/h (1 Bft) 100,00 %
21.11.2016 09:08 -0,6 C 99 % 1010,6 hPa 0,0 l/m 1,2 km/h (1 Bft) W-NW 297 2 min 0,000 mm 0,0 UV-I 180 W/m -0,7 C -0,6 C 3,2 km/h (1 Bft) 100,00 %
21.11.2016 09:10 -0,6 C 99 % 1010,6 hPa 0,0 l/m 0,0 km/h (0 Bft) W-NW 297 2 min 0,000 mm 0,0 UV-I 168 W/m -0,7 C -0,6 C 0,0 km/h (0 Bft) 100,00 %
21.11.2016 09:12 -0,6 C 99 % 1010,6 hPa 0,0 l/m 0,6 km/h (0 Bft) W-NW 297 2 min 0,000 mm 0,0 UV-I 203 W/m -0,7 C -0,6 C 1,6 km/h (1 Bft) 100,00 %
21.11.2016 09:14 -0,5 C 99 % 1010,6 hPa 0,0 l/m 2,1 km/h (1 Bft) W-NW 296 2 min 0,000 mm 0,0 UV-I 199 W/m -0,6 C -0,5 C 4,8 km/h (1 Bft) 100,00 %
21.11.2016 09:16 -0,4 C 99 % 1010,6 hPa 0,0 l/m 1,2 km/h (1 Bft) W-NW 296 2 min 0,000 mm 0,0 UV-I 207 W/m -0,5 C -0,4 C 3,2 km/h (1 Bft) 100,00 %
21.11.2016 09:18 -0,3 C 99 % 1010,5 hPa 0,0 l/m 0,0 km/h (0 Bft) W-NW 296 2 min 0,000 mm 0,0 UV-I 230 W/m -0,4 C -0,3 C 1,6 km/h (1 Bft) 100,00 %
21.11.2016 09:20 -0,1 C 99 % 1010,5 hPa 0,0 l/m 0,0 km/h (0 Bft) W-NW 296 2 min 0,000 mm 0,0 UV-I 219 W/m -0,2 C -0,1 C 0,0 km/h (0 Bft) 100,00 %
21.11.2016 09:22 -0,1 C 99 % 1010,5 hPa 0,2 l/m 0,0 km/h (0 Bft) W-NW 296 2 min 0,000 mm 0,0 UV-I 207 W/m -0,2 C -0,1 C 0,0 km/h (0 Bft) 100,00 %
21.11.2016 09:24 0,0 C 99 % 1010,5 hPa 0,0 l/m 0,0 km/h (0 Bft) W-NW 296 2 min 0,000 mm 0,0 UV-I 208 W/m -0,1 C 0,0 C 0,0 km/h (0 Bft) 100,00 %
21.11.2016 09:26 0,1 C 99 % 1010,5 hPa 0,0 l/m 0,0 km/h (0 Bft) W-NW 296 2 min 0,000 mm 0,0 UV-I 215 W/m -0,0 C 0,1 C 1,6 km/h (1 Bft) 100,00 %
21.11.2016 09:28 0,1 C 99 % 1010,5 hPa 0,0 l/m 0,1 km/h (0 Bft) W-NW 296 2 min 0,000 mm 0,0 UV-I 224 W/m -0,0 C 0,1 C 1,6 km/h (1 Bft) 98,00 %
21.11.2016 09:30 0,1 C 99 % 1010,4 hPa 0,0 l/m 1,4 km/h (1 Bft) NW 321 2 min 0,000 mm 0,0 UV-I 215 W/m -0,0 C 0,1 C 3,2 km/h (1 Bft) 100,00 %
21.11.2016 09:32 0,2 C 99 % 1010,3 hPa 0,0 l/m 2,7 km/h (1 Bft) N 349 2 min 0,000 mm 0,0 UV-I 244 W/m 0,1 C 0,2 C 3,2 km/h (1 Bft) 100,00 %
21.11.2016 09:34 0,3 C 99 % 1010,4 hPa 0,0 l/m 1,2 km/h (1 Bft) N 349 2 min 0,000 mm 0,0 UV-I 248 W/m 0,2 C 0,3 C 3,2 km/h (1 Bft) 100,00 %
21.11.2016 09:36 0,4 C 99 % 1010,4 hPa 0,0 l/m 0,0 km/h (0 Bft) N 349 2 min 0,000 mm 0,0 UV-I 250 W/m 0,3 C 0,4 C 1,6 km/h (1 Bft) 100,00 %
21.11.2016 09:38 0,4 C 99 % 1010,4 hPa 0,0 l/m 0,0 km/h (0 Bft) N 350 2 min 0,000 mm 0,0 UV-I 258 W/m 0,3 C 0,4 C 0,0 km/h (0 Bft) 100,00 %
21.11.2016 09:40 0,6 C 99 % 1010,4 hPa 0,0 l/m 0,8 km/h (0 Bft) N-NW 344 2 min 0,000 mm 0,0 UV-I 260 W/m 0,5 C 0,6 C 3,2 km/h (1 Bft) 100,00 %
21.11.2016 09:42 0,7 C 99 % 1010,3 hPa 0,0 l/m 0,0 km/h (0 Bft) N-NW 344 2 min 0,000 mm 0,2 UV-I 262 W/m 0,6 C 0,7 C 0,0 km/h (0 Bft) 97,87 %
21.11.2016 09:44 0,9 C 99 % 1010,3 hPa 0,0 l/m 1,6 km/h (1 Bft) N 355 2 min 0,000 mm 0,5 UV-I 264 W/m 0,8 C 0,9 C 4,8 km/h (1 Bft) 97,73 %
21.11.2016 09:46 1,1 C 99 % 1010,4 hPa 0,0 l/m 0,4 km/h (0 Bft) N 355 2 min 0,000 mm 0,5 UV-I 265 W/m 1,0 C 1,1 C 1,6 km/h (1 Bft) 100,00 %
21.11.2016 09:48 1,1 C 99 % 1010,4 hPa 0,0 l/m 0,7 km/h (0 Bft) N 355 2 min 0,000 mm 0,5 UV-I 252 W/m 1,0 C 1,1 C 1,6 km/h (1 Bft) 97,14 %
21.11.2016 09:50 1,0 C 99 % 1010,4 hPa 0,0 l/m 0,3 km/h (0 Bft) N 355 2 min 0,000 mm 0,5 UV-I 246 W/m 0,9 C 1,0 C 1,6 km/h (1 Bft) 100,00 %
21.11.2016 09:52 0,9 C 99 % 1010,4 hPa 0,0 l/m 1,2 km/h (1 Bft) N 355 2 min 0,000 mm 0,5 UV-I 264 W/m 0,8 C 0,9 C 3,2 km/h (1 Bft) 100,00 %
21.11.2016 09:54 1,0 C 99 % 1010,4 hPa 0,0 l/m 0,8 km/h (0 Bft) N 349 2 min 0,000 mm 0,5 UV-I 272 W/m 0,9 C 1,0 C 3,2 km/h (1 Bft) 100,00 %
21.11.2016 09:56 1,1 C 99 % 1010,4 hPa 0,0 l/m 0,5 km/h (0 Bft) N 349 2 min 0,000 mm 0,5 UV-I 277 W/m 1,0 C 1,1 C 1,6 km/h (1 Bft) 95,74 %
21.11.2016 09:58 1,2 C 99 % 1010,4 hPa 0,0 l/m 0,1 km/h (0 Bft) N 349 2 min 0,000 mm 0,5 UV-I 280 W/m 1,1 C 1,2 C 1,6 km/h (1 Bft) 97,73 %
21.11.2016 10:00 1,2 C 99 % 1010,4 hPa 0,0 l/m 0,8 km/h (0 Bft) N 349 2 min 0,077 mm 0,5 UV-I 269 W/m 1,1 C 1,2 C 1,6 km/h (1 Bft) 97,87 %
21.11.2016 10:02 1,2 C 99 % 1010,4 hPa 0,0 l/m 2,1 km/h (1 Bft) NW 323 2 min 0,000 mm 0,5 UV-I 262 W/m 1,1 C 1,2 C 3,2 km/h (1 Bft) 97,87 %
21.11.2016 10:04 1,4 C 99 % 1010,4 hPa 0,0 l/m 0,6 km/h (0 Bft) NW 323 2 min 0,000 mm 0,5 UV-I 281 W/m 1,3 C 1,4 C 3,2 km/h (1 Bft) 97,87 %
21.11.2016 10:06 1,4 C 99 % 1010,4 hPa 0,0 l/m 2,0 km/h (1 Bft) N 5 2 min 0,000 mm 0,6 UV-I 259 W/m 1,3 C 1,4 C 4,8 km/h (1 Bft) 97,87 %
21.11.2016 10:08 1,6 C 99 % 1010,3 hPa 0,0 l/m 0,1 km/h (0 Bft) N 5 2 min 0,000 mm 0,6 UV-I 288 W/m 1,5 C 1,6 C 1,6 km/h (1 Bft) 95,74 %
21.11.2016 10:10 1,7 C 99 % 1010,3 hPa 0,0 l/m 0,2 km/h (0 Bft) N 5 2 min 0,000 mm 0,6 UV-I 276 W/m 1,6 C 1,7 C 1,6 km/h (1 Bft) 95,74 %
21.11.2016 10:12 1,8 C 99 % 1010,4 hPa 0,0 l/m 0,7 km/h (0 Bft) N 5 2 min 0,000 mm 0,6 UV-I 297 W/m 1,7 C 1,8 C 1,6 km/h (1 Bft) 100,00 %
21.11.2016 10:14 1,9 C 99 % 1010,4 hPa 0,0 l/m 0,4 km/h (0 Bft) N 5 2 min 0,000 mm 0,6 UV-I 302 W/m 1,8 C 1,9 C 1,6 km/h (1 Bft) 96,92 %
21.11.2016 10:16 2,0 C 99 % 1010,4 hPa 0,0 l/m 1,9 km/h (1 Bft) W-NW 302 2 min 0,000 mm 0,6 UV-I 291 W/m 1,9 C 2,0 C 4,8 km/h (1 Bft) 97,96 %
21.11.2016 10:18 2,1 C 99 % 1010,4 hPa 0,0 l/m 2,0 km/h (1 Bft) W-NW 302 2 min 0,000 mm 0,6 UV-I 287 W/m 2,0 C 2,1 C 3,2 km/h (1 Bft) 100,00 %
21.11.2016 10:20 2,1 C 99 % 1010,4 hPa 0,0 l/m 1,2 km/h (1 Bft) W-NW 302 2 min 0,000 mm 0,6 UV-I 287 W/m 2,0 C 2,1 C 3,2 km/h (1 Bft) 98,00 %
21.11.2016 10:22 2,1 C 99 % 1010,2 hPa 0,0 l/m 0,2 km/h (0 Bft) W-NW 302 2 min 0,000 mm 0,6 UV-I 320 W/m 2,0 C 2,1 C 1,6 km/h (1 Bft) 100,00 %
21.11.2016 10:24 2,3 C 99 % 1010,4 hPa 0,0 l/m 0,2 km/h (0 Bft) W-NW 302 2 min 0,000 mm 0,6 UV-I 304 W/m 2,2 C 2,3 C 1,6 km/h (1 Bft) 100,00 %
21.11.2016 10:26 2,4 C 99 % 1010,3 hPa 0,0 l/m 0,4 km/h (0 Bft) SW 221 2 min 0,000 mm 0,7 UV-I 316 W/m 2,3 C 2,4 C 1,6 km/h (1 Bft) 97,56 %
21.11.2016 10:28 2,6 C 99 % 1010,2 hPa 0,0 l/m 0,1 km/h (0 Bft) SW 221 2 min 0,000 mm 0,7 UV-I 324 W/m 2,5 C 2,6 C 1,6 km/h (1 Bft) 100,00 %
21.11.2016 10:30 2,5 C 99 % 1010,1 hPa 0,0 l/m 0,7 km/h (0 Bft) SW 221 2 min 0,000 mm 0,7 UV-I 326 W/m 2,4 C 2,5 C 3,2 km/h (1 Bft) 100,00 %
21.11.2016 10:32 2,6 C 99 % 1010,0 hPa 0,0 l/m 2,1 km/h (1 Bft) S-SW 206 2 min 0,000 mm 0,7 UV-I 327 W/m 2,5 C 2,6 C 3,2 km/h (1 Bft) 100,00 %
21.11.2016 10:34 2,9 C 99 % 1010,0 hPa 0,0 l/m 3,0 km/h (1 Bft) O 93 2 min 0,000 mm 0,7 UV-I 331 W/m 2,8 C 2,9 C 4,8 km/h (1 Bft) 100,00 %
21.11.2016 10:36 3,1 C 99 % 1009,9 hPa 0,0 l/m 5,6 km/h (1 Bft) O-NO 63 2 min 0,000 mm 0,7 UV-I 336 W/m 3,0 C 3,1 C 8,0 km/h (2 Bft) 100,00 %
21.11.2016 10:38 3,2 C 99 % 1009,8 hPa 0,0 l/m 4,5 km/h (1 Bft) O-NO 63 2 min 0,000 mm 0,7 UV-I 338 W/m 3,1 C 3,2 C 6,4 km/h (2 Bft) 100,00 %
21.11.2016 10:40 3,2 C 99 % 1009,9 hPa 0,0 l/m 3,9 km/h (1 Bft) NO 56 2 min 0,000 mm 0,7 UV-I 334 W/m 3,1 C 3,2 C 6,4 km/h (2 Bft) 100,00 %
21.11.2016 10:42 3,3 C 99 % 1010,0 hPa 0,0 l/m 3,5 km/h (1 Bft) O 100 2 min 0,000 mm 0,7 UV-I 337 W/m 3,2 C 3,3 C 4,8 km/h (1 Bft) 100,00 %
21.11.2016 10:44 3,2 C 99 % 1009,9 hPa 0,0 l/m 1,9 km/h (1 Bft) O 99 2 min 0,000 mm 0,7 UV-I 346 W/m 3,1 C 3,2 C 4,8 km/h (1 Bft) 100,00 %
21.11.2016 10:46 3,4 C 99 % 1010,0 hPa 0,0 l/m 1,6 km/h (1 Bft) O 99 2 min 0,000 mm 0,7 UV-I 350 W/m 3,3 C 3,4 C 4,8 km/h (1 Bft) 98,11 %
21.11.2016 10:48 3,4 C 99 % 1010,0 hPa 0,0 l/m 0,2 km/h (0 Bft) O 99 2 min 0,000 mm 0,7 UV-I 350 W/m 3,3 C 3,4 C 1,6 km/h (1 Bft) 100,00 %
21.11.2016 10:50 3,7 C 99 % 1010,0 hPa 0,0 l/m 2,3 km/h (1 Bft) O 99 2 min 0,000 mm 0,8 UV-I 354 W/m 3,6 C 3,7 C 4,8 km/h (1 Bft) 100,00 %
21.11.2016 10:52 3,7 C 99 % 1009,9 hPa 0,0 l/m 1,0 km/h (0 Bft) O 98 2 min 0,000 mm 0,8 UV-I 357 W/m 3,6 C 3,7 C 3,2 km/h (1 Bft) 100,00 %
21.11.2016 10:54 3,8 C 99 % 1009,8 hPa 0,0 l/m 4,1 km/h (1 Bft) O-NO 69 2 min 0,000 mm 0,8 UV-I 362 W/m 3,7 C 3,8 C 6,4 km/h (2 Bft) 100,00 %
21.11.2016 10:56 4,1 C 99 % 1009,8 hPa 0,0 l/m 4,4 km/h (1 Bft) NO 51 2 min 0,000 mm 0,8 UV-I 365 W/m 4,0 C 4,1 C 6,4 km/h (2 Bft) 100,00 %
21.11.2016 10:58 4,2 C 99 % 1009,8 hPa 0,0 l/m 1,7 km/h (1 Bft) NO 51 2 min 0,000 mm 0,8 UV-I 367 W/m 4,1 C 4,2 C 4,8 km/h (1 Bft) 100,00 %
21.11.2016 11:00 4,3 C 99 % 1009,7 hPa 0,0 l/m 1,8 km/h (1 Bft) NO 51 2 min 0,127 mm 0,8 UV-I 370 W/m 4,2 C 4,3 C 4,8 km/h (1 Bft) 100,00 %
21.11.2016 11:02 4,2 C 99 % 1009,7 hPa 0,0 l/m 2,7 km/h (1 Bft) O 89 2 min 0,000 mm 0,8 UV-I 372 W/m 4,1 C 4,2 C 4,8 km/h (1 Bft) 100,00 %
21.11.2016 11:04 4,2 C 99 % 1009,7 hPa 0,0 l/m 3,0 km/h (1 Bft) O 96 2 min 0,000 mm 0,8 UV-I 374 W/m 4,1 C 4,2 C 4,8 km/h (1 Bft) 100,00 %
21.11.2016 11:06 4,2 C 99 % 1009,6 hPa 0,0 l/m 1,6 km/h (1 Bft) O 96 2 min 0,000 mm 0,8 UV-I 374 W/m 4,1 C 4,2 C 3,2 km/h (1 Bft) 100,00 %
21.11.2016 11:10 4,6 C 99 % 1009,6 hPa 0,0 l/m 3,2 km/h (1 Bft) O 90 4 min 0,000 mm 0,8 UV-I 376 W/m 4,5 C 4,6 C 8,0 km/h (2 Bft) 100,00 %
21.11.2016 11:15 5,0 C 99 % 1009,4 hPa 0,0 l/m 4,8 km/h (1 Bft) O-NO 67 5 min 0,000 mm 0,8 UV-I 382 W/m 4,9 C 5,0 C 8,0 km/h (2 Bft) 99,12 %
21.11.2016 11:20 5,2 C 99 % 1009,3 hPa 0,0 l/m 4,8 km/h (1 Bft) O-NO 67 5 min 0,000 mm 0,8 UV-I 386 W/m 5,1 C 5,2 C 8,0 km/h (2 Bft) 100,00 %
21.11.2016 11:24 5,3 C 99 % 1009,2 hPa 0,0 l/m 1,1 km/h (1 Bft) O 95 4 min 0,000 mm 0,9 UV-I 390 W/m 5,2 C 5,3 C 3,2 km/h (1 Bft) 92,31 %
21.11.2016 11:26 5,5 C 98 % 1009,3 hPa 0,0 l/m 3,3 km/h (1 Bft) O-NO 76 2 min 0,000 mm 0,9 UV-I 391 W/m 5,2 C 5,5 C 4,8 km/h (1 Bft) 96,15 %
21.11.2016 11:28 5,7 C 98 % 1009,3 hPa 0,0 l/m 0,9 km/h (0 Bft) O-NO 76 2 min 0,000 mm 0,9 UV-I 394 W/m 5,4 C 5,7 C 3,2 km/h (1 Bft) 96,23 %
21.11.2016 11:30 5,8 C 98 % 1009,3 hPa 0,0 l/m 0,6 km/h (0 Bft) O-NO 76 2 min 0,000 mm 0,9 UV-I 396 W/m 5,5 C 5,8 C 3,2 km/h (1 Bft) 97,44 %
21.11.2016 11:33 5,7 C 98 % 1009,3 hPa 0,0 l/m 1,7 km/h (1 Bft) O-NO 76 3 min 0,000 mm 0,9 UV-I 397 W/m 5,4 C 5,7 C 3,2 km/h (1 Bft) 95,89 %
21.11.2016 11:34 5,7 C 97 % 1009,3 hPa 0,0 l/m 0,0 km/h (0 Bft) O-NO 76 1 min 0,000 mm 0,9 UV-I 399 W/m 5,3 C 5,7 C 0,0 km/h (0 Bft) 100,00 %
21.11.2016 11:36 5,9 C 97 % 1009,1 hPa 0,0 l/m 0,7 km/h (0 Bft) O-NO 76 2 min 0,000 mm 0,9 UV-I 401 W/m 5,5 C 5,9 C 3,2 km/h (1 Bft) 96,00 %
21.11.2016 11:38 6,0 C 97 % 1009,0 hPa 0,0 l/m 1,6 km/h (1 Bft) O-NO 76 2 min 0,000 mm 0,9 UV-I 402 W/m 5,6 C 6,0 C 4,8 km/h (1 Bft) 100,00 %
21.11.2016 11:40 6,1 C 97 % 1009,0 hPa 0,0 l/m 2,0 km/h (1 Bft) O-NO 72 2 min 0,000 mm 0,9 UV-I 404 W/m 5,7 C 6,1 C 3,2 km/h (1 Bft) 97,87 %
21.11.2016 11:42 6,2 C 97 % 1008,9 hPa 0,0 l/m 5,0 km/h (1 Bft) NO 53 2 min 0,000 mm 0,9 UV-I 405 W/m 5,8 C 6,2 C 6,4 km/h (2 Bft) 100,00 %
21.11.2016 11:44 6,4 C 97 % 1008,9 hPa 0,0 l/m 4,2 km/h (1 Bft) NO 50 2 min 0,000 mm 0,9 UV-I 406 W/m 6,0 C 6,4 C 6,4 km/h (2 Bft) 100,00 %
21.11.2016 11:46 6,6 C 97 % 1009,0 hPa 0,0 l/m 2,0 km/h (1 Bft) NO 50 2 min 0,000 mm 0,9 UV-I 406 W/m 6,2 C 6,6 C 3,2 km/h (1 Bft) 100,00 %
21.11.2016 11:48 6,7 C 96 % 1008,9 hPa 0,0 l/m 1,0 km/h (0 Bft) NO 50 2 min 0,000 mm 0,9 UV-I 406 W/m 6,1 C 6,7 C 1,6 km/h (1 Bft) 100,00 %
21.11.2016 11:50 6,7 C 95 % 1008,9 hPa 0,0 l/m 1,7 km/h (1 Bft) O 87 2 min 0,000 mm 0,9 UV-I 405 W/m 6,0 C 6,7 C 4,8 km/h (1 Bft) 100,00 %
21.11.2016 11:52 6,8 C 95 % 1008,9 hPa 0,0 l/m 3,8 km/h (1 Bft) O-NO 76 2 min 0,000 mm 0,9 UV-I 405 W/m 6,1 C 6,8 C 4,8 km/h (1 Bft) 100,00 %
21.11.2016 11:54 6,8 C 94 % 1008,9 hPa 0,0 l/m 3,1 km/h (1 Bft) O-NO 76 2 min 0,000 mm 0,9 UV-I 406 W/m 5,9 C 6,8 C 4,8 km/h (1 Bft) 100,00 %
21.11.2016 11:56 7,2 C 95 % 1008,8 hPa 0,0 l/m 3,2 km/h (1 Bft) O-NO 75 2 min 0,000 mm 0,9 UV-I 404 W/m 6,5 C 7,2 C 4,8 km/h (1 Bft) 100,00 %
21.11.2016 11:58 7,3 C 93 % 1008,8 hPa 0,0 l/m 4,4 km/h (1 Bft) NO 54 2 min 0,000 mm 0,9 UV-I 406 W/m 6,2 C 7,3 C 6,4 km/h (2 Bft) 97,87 %
21.11.2016 12:00 7,3 C 93 % 1008,8 hPa 0,0 l/m 3,4 km/h (1 Bft) O-NO 59 2 min 0,152 mm 0,9 UV-I 403 W/m 6,2 C 7,3 C 6,4 km/h (2 Bft) 100,00 %
21.11.2016 12:02 7,4 C 93 % 1008,7 hPa 0,0 l/m 5,1 km/h (1 Bft) O-NO 71 2 min 0,000 mm 0,9 UV-I 404 W/m 6,3 C 7,4 C 8,0 km/h (2 Bft) 100,00 %
21.11.2016 12:04 7,3 C 91 % 1008,8 hPa 0,0 l/m 4,7 km/h (1 Bft) O-NO 67 2 min 0,000 mm 0,9 UV-I 402 W/m 5,9 C 7,3 C 6,4 km/h (2 Bft) 100,00 %
21.11.2016 12:06 7,3 C 92 % 1008,6 hPa 0,0 l/m 4,6 km/h (1 Bft) NO 56 2 min 0,000 mm 0,9 UV-I 404 W/m 6,1 C 7,3 C 6,4 km/h (2 Bft) 100,00 %
21.11.2016 12:08 7,5 C 91 % 1008,6 hPa 0,0 l/m 5,9 km/h (2 Bft) O 84 2 min 0,000 mm 0,9 UV-I 405 W/m 6,1 C 7,5 C 8,0 km/h (2 Bft) 100,00 %
21.11.2016 12:10 7,7 C 90 % 1008,5 hPa 0,0 l/m 6,8 km/h (2 Bft) O-NO 66 2 min 0,000 mm 0,9 UV-I 405 W/m 6,2 C 7,4 C 8,0 km/h (2 Bft) 96,61 %
21.11.2016 12:12 7,8 C 89 % 1008,6 hPa 0,0 l/m 5,6 km/h (1 Bft) O-NO 57 2 min 0,000 mm 0,9 UV-I 406 W/m 6,1 C 7,8 C 9,7 km/h (2 Bft) 97,87 %
21.11.2016 12:14 7,8 C 90 % 1008,5 hPa 0,0 l/m 5,0 km/h (1 Bft) NO 41 2 min 0,000 mm 0,9 UV-I 406 W/m 6,3 C 7,8 C 8,0 km/h (2 Bft) 97,87 %
21.11.2016 12:16 7,9 C 90 % 1008,6 hPa 0,0 l/m 1,8 km/h (1 Bft) NO 40 2 min 0,000 mm 0,9 UV-I 405 W/m 6,4 C 7,9 C 4,8 km/h (1 Bft) 100,00 %
21.11.2016 12:18 7,8 C 89 % 1008,7 hPa 0,0 l/m 1,0 km/h (0 Bft) NO 40 2 min 0,000 mm 0,9 UV-I 403 W/m 6,1 C 7,8 C 3,2 km/h (1 Bft) 100,00 %
21.11.2016 12:20 7,8 C 90 % 1008,6 hPa 0,0 l/m 1,0 km/h (0 Bft) N 351 2 min 0,000 mm 0,9 UV-I 403 W/m 6,3 C 7,8 C 3,2 km/h (1 Bft) 100,00 %
21.11.2016 12:22 8,0 C 89 % 1008,6 hPa 0,0 l/m 1,9 km/h (1 Bft) N-NW 341 2 min 0,000 mm 0,9 UV-I 399 W/m 6,3 C 8,0 C 4,8 km/h (1 Bft) 100,00 %
21.11.2016 12:24 8,1 C 89 % 1008,6 hPa 0,0 l/m 1,7 km/h (1 Bft) N-NO 30 2 min 0,000 mm 0,9 UV-I 397 W/m 6,4 C 8,1 C 4,8 km/h (1 Bft) 100,00 %
21.11.2016 12:26 8,3 C 89 % 1008,6 hPa 0,0 l/m 1,6 km/h (1 Bft) N-NO 30 2 min 0,000 mm 0,9 UV-I 395 W/m 6,6 C 8,3 C 4,8 km/h (1 Bft) 100,00 %
21.11.2016 12:28 8,4 C 89 % 1008,6 hPa 0,0 l/m 1,0 km/h (0 Bft) N-NO 30 2 min 0,000 mm 0,9 UV-I 398 W/m 6,7 C 8,4 C 3,2 km/h (1 Bft) 100,00 %
21.11.2016 12:30 8,5 C 88 % 1008,5 hPa 0,0 l/m 2,2 km/h (1 Bft) N-NO 22 2 min 0,000 mm 0,9 UV-I 393 W/m 6,6 C 8,5 C 4,8 km/h (1 Bft) 96,00 %
21.11.2016 12:32 8,7 C 89 % 1008,5 hPa 0,0 l/m 1,1 km/h (1 Bft) N 350 2 min 0,000 mm 0,9 UV-I 392 W/m 7,0 C 8,7 C 3,2 km/h (1 Bft) 100,00 %
21.11.2016 12:34 8,8 C 89 % 1008,4 hPa 0,0 l/m 1,2 km/h (1 Bft) N-NO 20 2 min 0,000 mm 0,9 UV-I 400 W/m 7,1 C 8,8 C 4,8 km/h (1 Bft) 100,00 %
21.11.2016 12:36 8,9 C 87 % 1008,4 hPa 0,0 l/m 3,0 km/h (1 Bft) N-NO 16 2 min 0,000 mm 0,9 UV-I 407 W/m 6,9 C 8,9 C 6,4 km/h (2 Bft) 100,00 %
21.11.2016 12:38 8,9 C 88 % 1008,4 hPa 0,0 l/m 1,2 km/h (1 Bft) N-NO 16 2 min 0,000 mm 0,9 UV-I 411 W/m 7,0 C 8,9 C 4,8 km/h (1 Bft) 97,87 %
21.11.2016 12:40 8,9 C 86 % 1008,4 hPa 0,0 l/m 2,4 km/h (1 Bft) N-NO 17 2 min 0,000 mm 0,9 UV-I 412 W/m 6,7 C 8,9 C 4,8 km/h (1 Bft) 95,74 %
21.11.2016 12:42 8,9 C 86 % 1008,3 hPa 0,0 l/m 1,2 km/h (1 Bft) N-NO 16 2 min 0,000 mm 0,8 UV-I 390 W/m 6,7 C 8,9 C 3,2 km/h (1 Bft) 98,00 %
21.11.2016 12:44 8,9 C 86 % 1008,1 hPa 0,0 l/m 3,8 km/h (1 Bft) NO 46 2 min 0,000 mm 0,8 UV-I 379 W/m 6,7 C 8,9 C 6,4 km/h (2 Bft) 97,22 %
21.11.2016 12:46 9,0 C 87 % 1008,1 hPa 0,0 l/m 3,2 km/h (1 Bft) NO 46 2 min 0,000 mm 0,8 UV-I 365 W/m 7,0 C 9,0 C 4,8 km/h (1 Bft) 98,00 %
21.11.2016 12:48 9,2 C 87 % 1008,1 hPa 0,0 l/m 4,2 km/h (1 Bft) NO 43 2 min 0,000 mm 0,8 UV-I 363 W/m 7,2 C 9,2 C 6,4 km/h (2 Bft) 94,23 %
21.11.2016 12:50 9,2 C 86 % 1008,1 hPa 0,0 l/m 2,5 km/h (1 Bft) NO 43 2 min 0,000 mm 0,8 UV-I 354 W/m 7,0 C 9,2 C 6,4 km/h (2 Bft) 97,44 %
21.11.2016 12:52 9,2 C 86 % 1008,2 hPa 0,0 l/m 0,7 km/h (0 Bft) NO 43 2 min 0,000 mm 0,8 UV-I 355 W/m 7,0 C 9,2 C 3,2 km/h (1 Bft) 98,00 %
21.11.2016 12:54 9,3 C 88 % 1008,1 hPa 0,0 l/m 0,9 km/h (0 Bft) NW 315 2 min 0,000 mm 0,8 UV-I 342 W/m 7,4 C 9,3 C 3,2 km/h (1 Bft) 95,74 %
21.11.2016 12:56 9,4 C 87 % 1008,1 hPa 0,0 l/m 1,8 km/h (1 Bft) N-NO 20 2 min 0,000 mm 0,8 UV-I 335 W/m 7,3 C 9,4 C 4,8 km/h (1 Bft) 98,00 %
21.11.2016 12:58 9,4 C 86 % 1008,2 hPa 0,0 l/m 1,1 km/h (1 Bft) N-NO 20 2 min 0,000 mm 0,8 UV-I 363 W/m 7,2 C 9,4 C 3,2 km/h (1 Bft) 95,74 %
21.11.2016 13:00 9,5 C 85 % 1008,2 hPa 0,0 l/m 3,0 km/h (1 Bft) O-NO 74 2 min 0,178 mm 0,8 UV-I 397 W/m 7,1 C 9,5 C 4,8 km/h (1 Bft) 97,73 %
21.11.2016 13:02 9,7 C 87 % 1008,0 hPa 0,0 l/m 1,8 km/h (1 Bft) O-NO 74 2 min 0,000 mm 0,8 UV-I 393 W/m 7,6 C 9,7 C 4,8 km/h (1 Bft) 97,87 %
21.11.2016 13:04 9,8 C 85 % 1008,0 hPa 0,0 l/m 1,6 km/h (1 Bft) O-NO 74 2 min 0,000 mm 0,8 UV-I 391 W/m 7,4 C 9,8 C 3,2 km/h (1 Bft) 97,56 %
21.11.2016 13:06 9,8 C 86 % 1008,0 hPa 0,0 l/m 4,8 km/h (1 Bft) O-NO 60 2 min 0,000 mm 0,8 UV-I 400 W/m 7,6 C 9,8 C 6,4 km/h (2 Bft) 100,00 %
21.11.2016 13:08 9,9 C 85 % 1008,0 hPa 0,0 l/m 2,9 km/h (1 Bft) O-NO 60 2 min 0,000 mm 0,8 UV-I 397 W/m 7,5 C 9,9 C 4,8 km/h (1 Bft) 100,00 %
21.11.2016 13:10 10,1 C 87 % 1008,0 hPa 0,0 l/m 2,1 km/h (1 Bft) O-NO 60 2 min 0,000 mm 0,8 UV-I 397 W/m 8,0 C 10,1 C 4,8 km/h (1 Bft) 95,74 %
21.11.2016 13:12 10,2 C 85 % 1007,9 hPa 0,0 l/m 3,8 km/h (1 Bft) O-NO 67 2 min 0,000 mm 0,8 UV-I 393 W/m 7,8 C 10,2 C 6,4 km/h (2 Bft) 100,00 %
21.11.2016 13:14 10,3 C 85 % 1008,0 hPa 0,0 l/m 1,7 km/h (1 Bft) NO 49 2 min 0,000 mm 0,7 UV-I 390 W/m 7,9 C 10,3 C 3,2 km/h (1 Bft) 98,11 %
21.11.2016 13:16 10,4 C 84 % 1008,2 hPa 0,0 l/m 1,2 km/h (1 Bft) NO 49 2 min 0,000 mm 0,7 UV-I 386 W/m 7,8 C 10,4 C 3,2 km/h (1 Bft) 97,44 %
21.11.2016 13:18 10,4 C 85 % 1008,1 hPa 0,0 l/m 1,4 km/h (1 Bft) N-NO 26 2 min 0,000 mm 0,7 UV-I 370 W/m 8,0 C 10,4 C 4,8 km/h (1 Bft) 100,00 %
21.11.2016 13:20 10,4 C 86 % 1008,1 hPa 0,0 l/m 1,2 km/h (1 Bft) N-NW 336 2 min 0,000 mm 0,7 UV-I 369 W/m 8,2 C 10,4 C 3,2 km/h (1 Bft) 97,56 %
21.11.2016 13:22 10,5 C 86 % 1008,1 hPa 0,0 l/m 1,2 km/h (1 Bft) N 355 2 min 0,000 mm 0,7 UV-I 367 W/m 8,3 C 10,5 C 4,8 km/h (1 Bft) 100,00 %
21.11.2016 13:24 10,6 C 84 % 1008,0 hPa 0,0 l/m 0,9 km/h (0 Bft) N 355 2 min 0,000 mm 0,7 UV-I 361 W/m 8,0 C 10,6 C 1,6 km/h (1 Bft) 100,00 %
21.11.2016 13:26 10,5 C 84 % 1008,0 hPa 0,0 l/m 1,9 km/h (1 Bft) NO 38 2 min 0,000 mm 0,7 UV-I 357 W/m 7,9 C 10,5 C 4,8 km/h (1 Bft) 97,44 %
21.11.2016 13:28 10,7 C 84 % 1007,9 hPa 0,0 l/m 4,1 km/h (1 Bft) NO 45 2 min 0,000 mm 0,7 UV-I 347 W/m 8,1 C 10,7 C 4,8 km/h (1 Bft) 100,00 %
21.11.2016 13:30 10,8 C 85 % 1007,9 hPa 0,0 l/m 3,4 km/h (1 Bft) N-NO 28 2 min 0,000 mm 0,7 UV-I 332 W/m 8,4 C 10,8 C 6,4 km/h (2 Bft) 100,00 %
21.11.2016 13:32 10,8 C 84 % 1007,9 hPa 0,0 l/m 3,7 km/h (1 Bft) N-NO 28 2 min 0,000 mm 0,6 UV-I 305 W/m 8,2 C 10,8 C 6,4 km/h (2 Bft) 100,00 %
21.11.2016 13:34 10,8 C 84 % 1008,0 hPa 0,0 l/m 1,9 km/h (1 Bft) N-NO 28 2 min 0,000 mm 0,6 UV-I 290 W/m 8,2 C 10,8 C 4,8 km/h (1 Bft) 100,00 %
21.11.2016 13:36 10,9 C 84 % 1007,9 hPa 0,0 l/m 1,2 km/h (1 Bft) NO 39 2 min 0,000 mm 0,6 UV-I 296 W/m 8,3 C 10,9 C 4,8 km/h (1 Bft) 100,00 %
21.11.2016 13:38 11,0 C 84 % 1007,9 hPa 0,0 l/m 2,1 km/h (1 Bft) NO 39 2 min 0,000 mm 0,6 UV-I 291 W/m 8,4 C 11,0 C 4,8 km/h (1 Bft) 100,00 %
21.11.2016 13:40 11,0 C 82 % 1007,9 hPa 0,0 l/m 0,8 km/h (0 Bft) NO 39 2 min 0,000 mm 0,6 UV-I 274 W/m 8,0 C 11,0 C 3,2 km/h (1 Bft) 100,00 %
21.11.2016 13:42 10,9 C 82 % 1007,9 hPa 0,0 l/m 0,4 km/h (0 Bft) NO 39 2 min 0,000 mm 0,6 UV-I 269 W/m 7,9 C 10,9 C 3,2 km/h (1 Bft) 100,00 %
21.11.2016 13:44 10,9 C 83 % 1007,9 hPa 0,0 l/m 2,5 km/h (1 Bft) NO 39 2 min 0,000 mm 0,6 UV-I 274 W/m 8,1 C 10,9 C 4,8 km/h (1 Bft) 100,00 %
21.11.2016 13:46 10,9 C 84 % 1008,0 hPa 0,0 l/m 0,4 km/h (0 Bft) NO 39 2 min 0,000 mm 0,6 UV-I 268 W/m 8,3 C 10,9 C 1,6 km/h (1 Bft) 100,00 %
21.11.2016 13:48 11,0 C 84 % 1008,0 hPa 0,0 l/m 0,1 km/h (0 Bft) NO 39 2 min 0,000 mm 0,5 UV-I 253 W/m 8,4 C 11,0 C 1,6 km/h (1 Bft) 100,00 %
21.11.2016 13:50 11,1 C 83 % 1007,9 hPa 0,0 l/m 1,2 km/h (1 Bft) NO 39 2 min 0,000 mm 0,5 UV-I 261 W/m 8,3 C 11,1 C 3,2 km/h (1 Bft) 100,00 %
21.11.2016 13:52 11,2 C 83 % 1007,9 hPa 0,0 l/m 3,9 km/h (1 Bft) O 80 2 min 0,000 mm 0,5 UV-I 280 W/m 8,4 C 11,2 C 6,4 km/h (2 Bft) 100,00 %
21.11.2016 13:54 11,2 C 84 % 1007,8 hPa 0,0 l/m 4,2 km/h (1 Bft) O-NO 74 2 min 0,000 mm 0,5 UV-I 293 W/m 8,6 C 11,2 C 4,8 km/h (1 Bft) 100,00 %
21.11.2016 13:56 11,2 C 83 % 1007,8 hPa 0,0 l/m 2,8 km/h (1 Bft) O-NO 74 2 min 0,000 mm 0,5 UV-I 290 W/m 8,4 C 11,2 C 4,8 km/h (1 Bft) 100,00 %
21.11.2016 13:58 11,2 C 83 % 1007,8 hPa 0,0 l/m 3,4 km/h (1 Bft) O-NO 70 2 min 0,000 mm 0,5 UV-I 280 W/m 8,4 C 11,2 C 4,8 km/h (1 Bft) 95,74 %
21.11.2016 14:00 11,1 C 83 % 1007,8 hPa 0,0 l/m 4,2 km/h (1 Bft) O-NO 66 2 min 0,152 mm 0,5 UV-I 269 W/m 8,3 C 11,1 C 4,8 km/h (1 Bft) 100,00 %
21.11.2016 14:02 11,1 C 84 % 1007,8 hPa 0,0 l/m 1,2 km/h (1 Bft) O-NO 66 2 min 0,000 mm 0,5 UV-I 261 W/m 8,5 C 11,1 C 4,8 km/h (1 Bft) 100,00 %
21.11.2016 14:04 11,0 C 83 % 1007,8 hPa 0,0 l/m 0,6 km/h (0 Bft) O-NO 66 2 min 0,000 mm 0,1 UV-I 246 W/m 8,2 C 11,0 C 3,2 km/h (1 Bft) 98,11 %
21.11.2016 14:06 11,1 C 85 % 1007,8 hPa 0,0 l/m 1,8 km/h (1 Bft) O-NO 66 2 min 0,000 mm 0,0 UV-I 241 W/m 8,7 C 11,1 C 3,2 km/h (1 Bft) 100,00 %
21.11.2016 14:08 11,1 C 85 % 1007,8 hPa 0,0 l/m 3,2 km/h (1 Bft) O-NO 66 2 min 0,000 mm 0,0 UV-I 230 W/m 8,7 C 11,1 C 4,8 km/h (1 Bft) 100,00 %
21.11.2016 14:10 11,2 C 84 % 1007,8 hPa 0,0 l/m 2,4 km/h (1 Bft) O-NO 66 2 min 0,000 mm 0,0 UV-I 219 W/m 8,6 C 11,2 C 3,2 km/h (1 Bft) 100,00 %
21.11.2016 14:12 11,2 C 84 % 1007,8 hPa 0,0 l/m 2,1 km/h (1 Bft) O-NO 66 2 min 0,000 mm 0,0 UV-I 209 W/m 8,6 C 11,2 C 3,2 km/h (1 Bft) 100,00 %
21.11.2016 14:14 11,3 C 85 % 1007,8 hPa 0,0 l/m 1,3 km/h (1 Bft) O-NO 66 2 min 0,000 mm 0,0 UV-I 214 W/m 8,9 C 11,3 C 3,2 km/h (1 Bft) 100,00 %
21.11.2016 14:16 11,2 C 84 % 1007,7 hPa 0,0 l/m 0,3 km/h (0 Bft) O-NO 66 2 min 0,000 mm 0,0 UV-I 222 W/m 8,6 C 11,2 C 1,6 km/h (1 Bft) 100,00 %
21.11.2016 14:18 11,2 C 84 % 1007,7 hPa 0,0 l/m 0,1 km/h (0 Bft) O-NO 66 2 min 0,000 mm 0,0 UV-I 221 W/m 8,6 C 11,2 C 1,6 km/h (1 Bft) 98,11 %
21.11.2016 14:20 11,3 C 84 % 1007,7 hPa 0,0 l/m 0,5 km/h (0 Bft) O-NO 65 2 min 0,000 mm 0,0 UV-I 192 W/m 8,7 C 11,3 C 1,6 km/h (1 Bft) 97,37 %
21.11.2016 14:22 11,3 C 83 % 1007,7 hPa 0,0 l/m 3,7 km/h (1 Bft) NO 50 2 min 0,000 mm 0,0 UV-I 161 W/m 8,5 C 11,3 C 6,4 km/h (2 Bft) 98,11 %
21.11.2016 14:24 11,2 C 84 % 1007,7 hPa 0,0 l/m 0,9 km/h (0 Bft) NO 50 2 min 0,000 mm 0,0 UV-I 167 W/m 8,6 C 11,2 C 4,8 km/h (1 Bft) 97,87 %
21.11.2016 14:26 11,2 C 85 % 1007,7 hPa 0,0 l/m 4,5 km/h (1 Bft) NO 48 2 min 0,000 mm 0,0 UV-I 176 W/m 8,8 C 11,2 C 6,4 km/h (2 Bft) 97,56 %
21.11.2016 14:28 11,2 C 85 % 1007,7 hPa 0,0 l/m 3,5 km/h (1 Bft) NO 44 2 min 0,000 mm 0,0 UV-I 174 W/m 8,8 C 11,2 C 6,4 km/h (2 Bft) 96,43 %
21.11.2016 14:30 11,3 C 85 % 1007,6 hPa 0,0 l/m 3,0 km/h (1 Bft) NO 44 2 min 0,000 mm 0,0 UV-I 158 W/m 8,9 C 11,3 C 4,8 km/h (1 Bft) 100,00 %
21.11.2016 14:32 11,3 C 86 % 1007,5 hPa 0,0 l/m 3,5 km/h (1 Bft) O-NO 78 2 min 0,000 mm 0,0 UV-I 154 W/m 9,0 C 11,3 C 4,8 km/h (1 Bft) 94,34 %
21.11.2016 14:34 11,2 C 86 % 1007,5 hPa 0,0 l/m 3,7 km/h (1 Bft) O-NO 78 2 min 0,000 mm 0,0 UV-I 144 W/m 8,9 C 11,2 C 4,8 km/h (1 Bft) 97,37 %
21.11.2016 14:36 11,1 C 86 % 1007,5 hPa 0,0 l/m 1,7 km/h (1 Bft) O-NO 78 2 min 0,000 mm 0,0 UV-I 129 W/m 8,8 C 11,1 C 3,2 km/h (1 Bft) 98,00 %
21.11.2016 14:38 11,1 C 86 % 1007,6 hPa 0,0 l/m 0,5 km/h (0 Bft) O-NO 78 0 min 0,000 mm 0,0 UV-I 117 W/m 8,8 C 11,1 C 1,6 km/h (1 Bft) 96,23 %
21.11.2016 14:40 11,1 C 86 % 1007,6 hPa 0,0 l/m 0,5 km/h (0 Bft) O-NO 78 0 min 0,000 mm 0,0 UV-I 113 W/m 8,8 C 11,1 C 3,2 km/h (1 Bft) 97,37 %
21.11.2016 14:42 11,1 C 85 % 1007,6 hPa 0,0 l/m 2,0 km/h (1 Bft) O-NO 77 0 min 0,000 mm 0,0 UV-I 113 W/m 8,7 C 11,1 C 4,8 km/h (1 Bft) 98,11 %
21.11.2016 14:44 11,1 C 86 % 1007,6 hPa 0,0 l/m 1,3 km/h (1 Bft) O-NO 77 2 min 0,000 mm 0,0 UV-I 114 W/m 8,8 C 11,1 C 3,2 km/h (1 Bft) 97,62 %
21.11.2016 14:46 11,2 C 85 % 1007,6 hPa 0,0 l/m 1,7 km/h (1 Bft) O-NO 77 2 min 0,000 mm 0,0 UV-I 111 W/m 8,8 C 11,2 C 3,2 km/h (1 Bft) 96,15 %
21.11.2016 14:48 11,3 C 85 % 1007,6 hPa 0,0 l/m 0,9 km/h (0 Bft) O-NO 77 0 min 0,000 mm 0,0 UV-I 103 W/m 8,9 C 11,3 C 1,6 km/h (1 Bft) 100,00 %
21.11.2016 14:50 11,3 C 84 % 1007,7 hPa 0,0 l/m 0,2 km/h (0 Bft) O-NO 77 2 min 0,000 mm 0,0 UV-I 107 W/m 8,7 C 11,3 C 1,6 km/h (1 Bft) 96,00 %
21.11.2016 14:52 11,2 C 84 % 1007,8 hPa 0,0 l/m 1,1 km/h (1 Bft) O-NO 75 2 min 0,000 mm 0,0 UV-I 131 W/m 8,6 C 11,2 C 3,2 km/h (1 Bft) 100,00 %
21.11.2016 14:54 11,1 C 85 % 1007,8 hPa 0,0 l/m 0,8 km/h (0 Bft) O-NO 73 2 min 0,000 mm 0,0 UV-I 132 W/m 8,7 C 11,1 C 3,2 km/h (1 Bft) 97,87 %
21.11.2016 14:56 10,9 C 86 % 1007,8 hPa 0,0 l/m 2,3 km/h (1 Bft) N 355 2 min 0,000 mm 0,0 UV-I 124 W/m 8,7 C 10,9 C 4,8 km/h (1 Bft) 100,00 %
21.11.2016 14:58 10,9 C 87 % 1007,8 hPa 0,0 l/m 1,1 km/h (1 Bft) N-NW 341 2 min 0,000 mm 0,0 UV-I 133 W/m 8,8 C 10,9 C 3,2 km/h (1 Bft) 100,00 %
21.11.2016 15:00 10,9 C 87 % 1007,9 hPa 0,0 l/m 0,9 km/h (0 Bft) N-NW 346 2 min 0,000 mm 0,0 UV-I 134 W/m 8,8 C 10,9 C 3,2 km/h (1 Bft) 98,00 %
21.11.2016 15:02 10,9 C 87 % 1007,8 hPa 0,0 l/m 2,5 km/h (1 Bft) N-NW 341 2 min 0,076 mm 0,0 UV-I 133 W/m 8,8 C 10,9 C 3,2 km/h (1 Bft) 100,00 %
21.11.2016 15:04 10,9 C 86 % 1007,8 hPa 0,0 l/m 1,4 km/h (1 Bft) N-NW 341 2 min 0,000 mm 0,0 UV-I 137 W/m 8,7 C 10,9 C 3,2 km/h (1 Bft) 100,00 %
21.11.2016 15:06 11,0 C 85 % 1007,7 hPa 0,0 l/m 0,4 km/h (0 Bft) N-NW 341 2 min 0,000 mm 0,0 UV-I 138 W/m 8,6 C 11,0 C 1,6 km/h (1 Bft) 100,00 %
21.11.2016 15:08 11,1 C 85 % 1007,7 hPa 0,0 l/m 0,1 km/h (0 Bft) N-NW 341 2 min 0,000 mm 0,0 UV-I 135 W/m 8,7 C 11,1 C 1,6 km/h (1 Bft) 100,00 %
21.11.2016 15:10 11,0 C 86 % 1007,7 hPa 0,0 l/m 0,1 km/h (0 Bft) N-NW 341 2 min 0,000 mm 0,0 UV-I 134 W/m 8,7 C 11,0 C 1,6 km/h (1 Bft) 100,00 %
21.11.2016 15:12 10,9 C 87 % 1007,7 hPa 0,0 l/m 0,0 km/h (0 Bft) N-NW 341 2 min 0,000 mm 0,0 UV-I 129 W/m 8,8 C 10,9 C 1,6 km/h (1 Bft) 100,00 %
21.11.2016 15:14 10,9 C 87 % 1007,8 hPa 0,0 l/m 0,9 km/h (0 Bft) N-NW 340 2 min 0,000 mm 0,0 UV-I 123 W/m 8,8 C 10,9 C 3,2 km/h (1 Bft) 100,00 %
21.11.2016 15:16 10,9 C 87 % 1007,7 hPa 0,0 l/m 1,6 km/h (1 Bft) N-NW 332 2 min 0,000 mm 0,0 UV-I 119 W/m 8,8 C 10,9 C 4,8 km/h (1 Bft) 98,11 %
21.11.2016 15:18 11,1 C 86 % 1007,7 hPa 0,0 l/m 0,2 km/h (0 Bft) N-NW 332 2 min 0,000 mm 0,0 UV-I 116 W/m 8,8 C 11,1 C 1,6 km/h (1 Bft) 100,00 %
21.11.2016 15:20 11,1 C 86 % 1007,8 hPa 0,0 l/m 1,6 km/h (1 Bft) N-NW 332 2 min 0,000 mm 0,0 UV-I 112 W/m 8,8 C 11,1 C 3,2 km/h (1 Bft) 100,00 %
21.11.2016 15:22 11,1 C 86 % 1007,8 hPa 0,0 l/m 0,0 km/h (0 Bft) N-NW 332 2 min 0,000 mm 0,0 UV-I 99 W/m 8,8 C 11,1 C 1,6 km/h (1 Bft) 97,87 %
21.11.2016 15:24 11,1 C 86 % 1007,8 hPa 0,0 l/m 1,7 km/h (1 Bft) N-NW 332 2 min 0,000 mm 0,0 UV-I 97 W/m 8,8 C 11,1 C 3,2 km/h (1 Bft) 100,00 %
21.11.2016 15:26 11,1 C 86 % 1007,8 hPa 0,0 l/m 0,9 km/h (0 Bft) N-NW 332 2 min 0,000 mm 0,0 UV-I 99 W/m 8,8 C 11,1 C 3,2 km/h (1 Bft) 97,78 %
21.11.2016 15:28 11,1 C 86 % 1007,8 hPa 0,0 l/m 0,0 km/h (0 Bft) N-NW 332 2 min 0,000 mm 0,0 UV-I 100 W/m 8,8 C 11,1 C 0,0 km/h (0 Bft) 100,00 %
21.11.2016 15:30 11,1 C 87 % 1007,8 hPa 0,0 l/m 0,0 km/h (0 Bft) N-NW 332 2 min 0,000 mm 0,0 UV-I 93 W/m 9,0 C 11,1 C 0,0 km/h (0 Bft) 98,11 %
21.11.2016 15:32 11,0 C 87 % 1007,7 hPa 0,0 l/m 0,0 km/h (0 Bft) N-NW 332 2 min 0,000 mm 0,0 UV-I 83 W/m 8,9 C 11,0 C 0,0 km/h (0 Bft) 97,87 %
21.11.2016 15:34 10,9 C 87 % 1007,7 hPa 0,0 l/m 0,0 km/h (0 Bft) N-NW 332 2 min 0,000 mm 0,0 UV-I 77 W/m 8,8 C 10,9 C 0,0 km/h (0 Bft) 100,00 %
21.11.2016 15:36 10,8 C 88 % 1007,7 hPa 0,0 l/m 0,0 km/h (0 Bft) N-NW 332 2 min 0,000 mm 0,0 UV-I 70 W/m 8,9 C 10,8 C 1,6 km/h (1 Bft) 97,87 %
21.11.2016 15:38 10,7 C 88 % 1007,8 hPa 0,0 l/m 2,2 km/h (1 Bft) N-NW 346 2 min 0,000 mm 0,0 UV-I 63 W/m 8,8 C 10,7 C 4,8 km/h (1 Bft) 100,00 %
21.11.2016 15:40 10,5 C 89 % 1007,8 hPa 0,0 l/m 2,6 km/h (1 Bft) N-NW 347 2 min 0,000 mm 0,0 UV-I 49 W/m 8,8 C 10,5 C 3,2 km/h (1 Bft) 100,00 %
21.11.2016 15:42 10,4 C 90 % 1007,8 hPa 0,0 l/m 4,0 km/h (1 Bft) NO 42 2 min 0,000 mm 0,0 UV-I 44 W/m 8,8 C 10,4 C 4,8 km/h (1 Bft) 97,56 %
21.11.2016 15:44 10,4 C 89 % 1007,9 hPa 0,0 l/m 3,3 km/h (1 Bft) NO 42 2 min 0,000 mm 0,0 UV-I 46 W/m 8,7 C 10,4 C 4,8 km/h (1 Bft) 100,00 %
21.11.2016 15:46 10,4 C 89 % 1007,8 hPa 0,0 l/m 2,4 km/h (1 Bft) NO 42 2 min 0,000 mm 0,0 UV-I 45 W/m 8,7 C 10,4 C 4,8 km/h (1 Bft) 100,00 %
21.11.2016 15:48 10,5 C 88 % 1007,8 hPa 0,0 l/m 1,6 km/h (1 Bft) NO 42 2 min 0,000 mm 0,0 UV-I 37 W/m 8,6 C 10,5 C 3,2 km/h (1 Bft) 97,87 %
21.11.2016 15:50 10,4 C 88 % 1007,7 hPa 0,0 l/m 0,6 km/h (0 Bft) NO 42 0 min 0,000 mm 0,0 UV-I 30 W/m 8,5 C 10,4 C 1,6 km/h (1 Bft) 100,00 %
21.11.2016 15:52 10,3 C 89 % 1007,7 hPa 0,0 l/m 1,6 km/h (1 Bft) O-NO 71 2 min 0,000 mm 0,0 UV-I 31 W/m 8,6 C 10,3 C 4,8 km/h (1 Bft) 100,00 %
21.11.2016 15:54 9,9 C 89 % 1007,7 hPa 0,0 l/m 5,4 km/h (1 Bft) O 90 2 min 0,000 mm 0,0 UV-I 34 W/m 8,2 C 9,9 C 6,4 km/h (2 Bft) 100,00 %
21.11.2016 15:56 9,6 C 90 % 1007,7 hPa 0,0 l/m 4,8 km/h (1 Bft) O 85 2 min 0,000 mm 0,0 UV-I 26 W/m 8,0 C 9,6 C 6,4 km/h (2 Bft) 98,11 %
21.11.2016 15:58 9,4 C 91 % 1007,7 hPa 0,0 l/m 4,4 km/h (1 Bft) O 81 0 min 0,000 mm 0,0 UV-I 20 W/m 8,0 C 9,4 C 6,4 km/h (2 Bft) 100,00 %
21.11.2016 16:00 9,4 C 93 % 1007,6 hPa 0,0 l/m 4,8 km/h (1 Bft) O-NO 60 0 min 0,051 mm 0,0 UV-I 18 W/m 8,3 C 9,4 C 6,4 km/h (2 Bft) 100,00 %
21.11.2016 16:02 9,6 C 92 % 1007,6 hPa 0,0 l/m 5,4 km/h (1 Bft) NO 51 2 min 0,000 mm 0,0 UV-I 17 W/m 8,4 C 9,6 C 6,4 km/h (2 Bft) 100,00 %
21.11.2016 16:04 9,7 C 91 % 1007,7 hPa 0,0 l/m 4,8 km/h (1 Bft) NO 47 2 min 0,000 mm 0,0 UV-I 15 W/m 8,3 C 9,7 C 6,4 km/h (2 Bft) 100,00 %
21.11.2016 16:06 9,8 C 90 % 1007,7 hPa 0,0 l/m 3,3 km/h (1 Bft) NO 47 2 min 0,000 mm 0,0 UV-I 13 W/m 8,2 C 9,8 C 4,8 km/h (1 Bft) 100,00 %
21.11.2016 16:08 9,7 C 90 % 1007,7 hPa 0,0 l/m 1,5 km/h (1 Bft) NO 47 0 min 0,000 mm 0,0 UV-I 11 W/m 8,1 C 9,7 C 3,2 km/h (1 Bft) 100,00 %
21.11.2016 16:10 9,4 C 91 % 1007,7 hPa 0,0 l/m 3,6 km/h (1 Bft) O-NO 69 0 min 0,000 mm 0,0 UV-I 10 W/m 8,0 C 9,4 C 4,8 km/h (1 Bft) 100,00 %
21.11.2016 16:12 9,2 C 91 % 1007,8 hPa 0,0 l/m 3,5 km/h (1 Bft) O-NO 74 0 min 0,000 mm 0,0 UV-I 9 W/m 7,8 C 9,2 C 4,8 km/h (1 Bft) 100,00 %
21.11.2016 16:14 8,8 C 92 % 1007,7 hPa 0,0 l/m 5,6 km/h (1 Bft) O-NO 77 0 min 0,000 mm 0,0 UV-I 8 W/m 7,6 C 8,8 C 6,4 km/h (2 Bft) 98,00 %
21.11.2016 16:16 8,6 C 92 % 1007,7 hPa 0,0 l/m 5,0 km/h (1 Bft) O-NO 77 0 min 0,000 mm 0,0 UV-I 7 W/m 7,4 C 8,6 C 6,4 km/h (2 Bft) 100,00 %
21.11.2016 16:18 8,5 C 93 % 1007,7 hPa 0,0 l/m 4,2 km/h (1 Bft) O-NO 76 0 min 0,000 mm 0,0 UV-I 7 W/m 7,4 C 8,5 C 6,4 km/h (2 Bft) 100,00 %
21.11.2016 16:20 8,7 C 95 % 1007,7 hPa 0,0 l/m 4,4 km/h (1 Bft) O-NO 68 0 min 0,000 mm 0,0 UV-I 7 W/m 7,9 C 8,7 C 6,4 km/h (2 Bft) 100,00 %
21.11.2016 16:22 8,9 C 94 % 1007,8 hPa 0,0 l/m 0,2 km/h (0 Bft) O-NO 68 0 min 0,000 mm 0,0 UV-I 6 W/m 8,0 C 8,9 C 1,6 km/h (1 Bft) 100,00 %
21.11.2016 16:24 8,9 C 93 % 1007,8 hPa 0,0 l/m 1,0 km/h (0 Bft) O-NO 68 0 min 0,000 mm 0,0 UV-I 5 W/m 7,8 C 8,9 C 3,2 km/h (1 Bft) 100,00 %
21.11.2016 16:26 8,8 C 93 % 1007,8 hPa 0,0 l/m 0,6 km/h (0 Bft) O-NO 68 0 min 0,000 mm 0,0 UV-I 5 W/m 7,7 C 8,8 C 1,6 km/h (1 Bft) 100,00 %
21.11.2016 16:28 8,7 C 93 % 1007,8 hPa 0,0 l/m 3,3 km/h (1 Bft) O 96 0 min 0,000 mm 0,0 UV-I 5 W/m 7,6 C 8,7 C 6,4 km/h (2 Bft) 100,00 %
21.11.2016 16:30 8,5 C 93 % 1007,7 hPa 0,0 l/m 1,2 km/h (1 Bft) O 96 0 min 0,000 mm 0,0 UV-I 5 W/m 7,4 C 8,5 C 3,2 km/h (1 Bft) 100,00 %
21.11.2016 16:32 8,2 C 93 % 1007,8 hPa 0,0 l/m 1,3 km/h (1 Bft) O 96 0 min 0,000 mm 0,0 UV-I 0 W/m 7,1 C 8,2 C 3,2 km/h (1 Bft) 97,37 %
21.11.2016 16:34 8,1 C 94 % 1007,7 hPa 0,0 l/m 1,6 km/h (1 Bft) O 96 0 min 0,000 mm 0,0 UV-I 0 W/m 7,2 C 8,1 C 3,2 km/h (1 Bft) 100,00 %
21.11.2016 16:36 8,1 C 94 % 1007,8 hPa 0,0 l/m 3,0 km/h (1 Bft) O 97 0 min 0,000 mm 0,0 UV-I 0 W/m 7,2 C 8,1 C 6,4 km/h (2 Bft) 100,00 %
21.11.2016 16:38 8,1 C 94 % 1007,8 hPa 0,0 l/m 1,7 km/h (1 Bft) O 97 0 min 0,000 mm 0,0 UV-I 0 W/m 7,2 C 8,1 C 3,2 km/h (1 Bft) 100,00 %
21.11.2016 16:40 8,2 C 95 % 1007,8 hPa 0,0 l/m 1,8 km/h (1 Bft) O 97 0 min 0,000 mm 0,0 UV-I 0 W/m 7,4 C 8,2 C 3,2 km/h (1 Bft) 100,00 %
21.11.2016 16:42 8,2 C 95 % 1007,8 hPa 0,0 l/m 0,4 km/h (0 Bft) O 97 0 min 0,000 mm 0,0 UV-I 0 W/m 7,4 C 8,2 C 1,6 km/h (1 Bft) 100,00 %
21.11.2016 16:44 8,2 C 95 % 1007,8 hPa 0,0 l/m 1,3 km/h (1 Bft) O 96 0 min 0,000 mm 0,0 UV-I 0 W/m 7,4 C 8,2 C 3,2 km/h (1 Bft) 100,00 %
21.11.2016 16:46 8,1 C 95 % 1007,8 hPa 0,0 l/m 0,6 km/h (0 Bft) O 96 0 min 0,000 mm 0,0 UV-I 0 W/m 7,3 C 8,1 C 3,2 km/h (1 Bft) 100,00 %
21.11.2016 16:48 8,0 C 95 % 1007,8 hPa 0,0 l/m 0,4 km/h (0 Bft) O 96 0 min 0,000 mm 0,0 UV-I 0 W/m 7,2 C 8,0 C 1,6 km/h (1 Bft) 100,00 %
21.11.2016 16:50 7,9 C 95 % 1007,9 hPa 0,0 l/m 0,6 km/h (0 Bft) O 96 0 min 0,000 mm 0,0 UV-I 0 W/m 7,1 C 7,9 C 1,6 km/h (1 Bft) 100,00 %
21.11.2016 16:52 7,9 C 95 % 1007,9 hPa 0,0 l/m 0,0 km/h (0 Bft) O 96 0 min 0,000 mm 0,0 UV-I 0 W/m 7,1 C 7,9 C 0,0 km/h (0 Bft) 97,37 %
21.11.2016 16:54 7,7 C 95 % 1007,9 hPa 0,0 l/m 1,2 km/h (1 Bft) O 96 0 min 0,000 mm 0,0 UV-I 0 W/m 7,0 C 7,7 C 3,2 km/h (1 Bft) 100,00 %
21.11.2016 16:56 7,6 C 95 % 1007,9 hPa 0,0 l/m 4,8 km/h (1 Bft) O 96 0 min 0,000 mm 0,0 UV-I 0 W/m 6,9 C 7,6 C 6,4 km/h (2 Bft) 100,00 %
21.11.2016 16:58 7,4 C 95 % 1007,9 hPa 0,0 l/m 4,0 km/h (1 Bft) O 96 0 min 0,000 mm 0,0 UV-I 0 W/m 6,7 C 7,4 C 4,8 km/h (1 Bft) 97,37 %
21.11.2016 17:00 7,4 C 95 % 1007,9 hPa 0,0 l/m 2,5 km/h (1 Bft) O 99 0 min 0,000 mm 0,0 UV-I 0 W/m 6,7 C 7,4 C 4,8 km/h (1 Bft) 100,00 %
21.11.2016 17:02 7,4 C 96 % 1007,9 hPa 0,0 l/m 0,2 km/h (0 Bft) O 99 0 min 0,000 mm 0,0 UV-I 0 W/m 6,8 C 7,4 C 1,6 km/h (1 Bft) 100,00 %
21.11.2016 17:04 7,4 C 95 % 1007,9 hPa 0,0 l/m 1,3 km/h (1 Bft) O 99 0 min 0,000 mm 0,0 UV-I 0 W/m 6,7 C 7,4 C 3,2 km/h (1 Bft) 100,00 %
21.11.2016 17:06 7,5 C 96 % 1007,9 hPa 0,0 l/m 2,7 km/h (1 Bft) O 99 0 min 0,000 mm 0,0 UV-I 0 W/m 6,9 C 7,5 C 4,8 km/h (1 Bft) 97,56 %
21.11.2016 17:08 7,5 C 96 % 1008,0 hPa 0,0 l/m 4,1 km/h (1 Bft) O 101 0 min 0,000 mm 0,0 UV-I 0 W/m 6,9 C 7,5 C 6,4 km/h (2 Bft) 100,00 %
21.11.2016 17:10 7,4 C 96 % 1007,9 hPa 0,0 l/m 4,8 km/h (1 Bft) O-SO 102 0 min 0,000 mm 0,0 UV-I 0 W/m 6,8 C 7,4 C 6,4 km/h (2 Bft) 100,00 %
21.11.2016 17:12 7,1 C 95 % 1008,0 hPa 0,0 l/m 5,2 km/h (1 Bft) S 174 0 min 0,000 mm 0,0 UV-I 0 W/m 6,4 C 7,1 C 8,0 km/h (2 Bft) 95,12 %
21.11.2016 17:14 7,0 C 95 % 1008,0 hPa 0,0 l/m 2,7 km/h (1 Bft) S 174 0 min 0,000 mm 0,0 UV-I 0 W/m 6,3 C 7,0 C 4,8 km/h (1 Bft) 98,00 %
21.11.2016 17:16 6,8 C 95 % 1008,0 hPa 0,0 l/m 3,0 km/h (1 Bft) S 174 0 min 0,000 mm 0,0 UV-I 0 W/m 6,1 C 6,8 C 4,8 km/h (1 Bft) 91,67 %
21.11.2016 17:18 6,8 C 96 % 1008,0 hPa 0,0 l/m 3,8 km/h (1 Bft) S 174 0 min 0,000 mm 0,0 UV-I 0 W/m 6,2 C 6,8 C 4,8 km/h (1 Bft) 98,57 %
21.11.2016 17:20 7,0 C 96 % 1008,1 hPa 0,0 l/m 5,4 km/h (1 Bft) S 182 0 min 0,000 mm 0,0 UV-I 0 W/m 6,4 C 7,0 C 8,0 km/h (2 Bft) 98,00 %
21.11.2016 17:22 7,1 C 97 % 1008,1 hPa 0,0 l/m 3,9 km/h (1 Bft) S 189 0 min 0,000 mm 0,0 UV-I 0 W/m 6,7 C 7,1 C 4,8 km/h (1 Bft) 97,44 %
21.11.2016 17:24 7,2 C 97 % 1008,1 hPa 0,0 l/m 2,3 km/h (1 Bft) S 189 0 min 0,000 mm 0,0 UV-I 0 W/m 6,8 C 7,2 C 4,8 km/h (1 Bft) 96,36 %
21.11.2016 17:26 7,2 C 97 % 1008,1 hPa 0,0 l/m 2,7 km/h (1 Bft) S 189 0 min 0,000 mm 0,0 UV-I 0 W/m 6,8 C 7,2 C 3,2 km/h (1 Bft) 97,44 %
21.11.2016 17:28 7,2 C 96 % 1008,1 hPa 0,0 l/m 3,5 km/h (1 Bft) S 189 0 min 0,000 mm 0,0 UV-I 0 W/m 6,6 C 7,2 C 4,8 km/h (1 Bft) 98,00 %
21.11.2016 17:30 7,2 C 96 % 1008,1 hPa 0,0 l/m 5,0 km/h (1 Bft) S 189 0 min 0,000 mm 0,0 UV-I 0 W/m 6,6 C 7,2 C 6,4 km/h (2 Bft) 96,00 %
21.11.2016 17:32 6,9 C 96 % 1008,0 hPa 0,0 l/m 4,8 km/h (1 Bft) S 189 0 min 0,000 mm 0,0 UV-I 0 W/m 6,3 C 6,9 C 6,4 km/h (2 Bft) 98,00 %
21.11.2016 17:34 6,7 C 95 % 1008,0 hPa 0,0 l/m 3,0 km/h (1 Bft) S 188 0 min 0,000 mm 0,0 UV-I 0 W/m 6,0 C 6,7 C 6,4 km/h (2 Bft) 97,87 %
21.11.2016 17:36 6,7 C 96 % 1008,0 hPa 0,0 l/m 3,9 km/h (1 Bft) S-SO 153 0 min 0,000 mm 0,0 UV-I 0 W/m 6,1 C 6,7 C 6,4 km/h (2 Bft) 91,30 %
21.11.2016 17:38 6,8 C 97 % 1008,0 hPa 0,0 l/m 3,7 km/h (1 Bft) S-SO 153 0 min 0,000 mm 0,0 UV-I 0 W/m 6,4 C 6,8 C 4,8 km/h (1 Bft) 98,53 %
21.11.2016 17:40 7,1 C 97 % 1008,0 hPa 0,0 l/m 1,4 km/h (1 Bft) S-SO 153 0 min 0,000 mm 0,0 UV-I 0 W/m 6,7 C 7,1 C 4,8 km/h (1 Bft) 97,56 %
21.11.2016 17:42 7,1 C 97 % 1008,0 hPa 0,0 l/m 1,5 km/h (1 Bft) SW 228 0 min 0,000 mm 0,0 UV-I 0 W/m 6,7 C 7,1 C 4,8 km/h (1 Bft) 94,00 %
21.11.2016 17:44 6,9 C 97 % 1008,1 hPa 0,0 l/m 2,9 km/h (1 Bft) W-SW 250 0 min 0,000 mm 0,0 UV-I 0 W/m 6,5 C 6,9 C 4,8 km/h (1 Bft) 95,74 %
21.11.2016 17:46 6,5 C 96 % 1008,2 hPa 0,0 l/m 1,5 km/h (1 Bft) W-SW 250 0 min 0,000 mm 0,0 UV-I 0 W/m 5,9 C 6,5 C 3,2 km/h (1 Bft) 95,74 %
21.11.2016 17:48 6,2 C 96 % 1008,2 hPa 0,0 l/m 0,9 km/h (0 Bft) W-SW 250 0 min 0,000 mm 0,0 UV-I 0 W/m 5,6 C 6,2 C 1,6 km/h (1 Bft) 95,74 %
21.11.2016 17:50 6,0 C 96 % 1008,2 hPa 0,0 l/m 0,3 km/h (0 Bft) W-SW 250 0 min 0,000 mm 0,0 UV-I 0 W/m 5,4 C 6,0 C 1,6 km/h (1 Bft) 95,74 %
21.11.2016 17:52 5,9 C 96 % 1008,1 hPa 0,0 l/m 4,7 km/h (1 Bft) W-SW 247 0 min 0,000 mm 0,0 UV-I 0 W/m 5,3 C 5,9 C 6,4 km/h (2 Bft) 97,56 %
21.11.2016 17:54 5,8 C 96 % 1008,1 hPa 0,0 l/m 3,5 km/h (1 Bft) W-SW 243 0 min 0,000 mm 0,0 UV-I 0 W/m 5,2 C 5,8 C 6,4 km/h (2 Bft) 100,00 %
21.11.2016 17:56 5,8 C 96 % 1008,3 hPa 0,0 l/m 1,1 km/h (1 Bft) W-SW 243 0 min 0,000 mm 0,0 UV-I 0 W/m 5,2 C 5,8 C 3,2 km/h (1 Bft) 100,00 %
21.11.2016 17:58 5,8 C 97 % 1008,3 hPa 0,0 l/m 3,9 km/h (1 Bft) W-SW 243 0 min 0,000 mm 0,0 UV-I 0 W/m 5,4 C 5,8 C 4,8 km/h (1 Bft) 100,00 %
21.11.2016 18:00 5,9 C 97 % 1008,4 hPa 0,0 l/m 5,4 km/h (1 Bft) SW 236 0 min 0,000 mm 0,0 UV-I 0 W/m 5,5 C 5,9 C 6,4 km/h (2 Bft) 100,00 %
21.11.2016 18:02 6,1 C 97 % 1008,3 hPa 0,0 l/m 4,5 km/h (1 Bft) SW 236 0 min 0,000 mm 0,0 UV-I 0 W/m 5,7 C 6,1 C 4,8 km/h (1 Bft) 100,00 %
21.11.2016 18:04 6,1 C 97 % 1008,3 hPa 0,0 l/m 3,6 km/h (1 Bft) SW 236 0 min 0,000 mm 0,0 UV-I 0 W/m 5,7 C 6,1 C 4,8 km/h (1 Bft) 100,00 %
21.11.2016 18:06 6,0 C 97 % 1008,3 hPa 0,0 l/m 2,2 km/h (1 Bft) SW 236 0 min 0,000 mm 0,0 UV-I 0 W/m 5,6 C 6,0 C 4,8 km/h (1 Bft) 100,00 %
21.11.2016 18:08 6,1 C 97 % 1008,3 hPa 0,0 l/m 4,0 km/h (1 Bft) SW 236 0 min 0,000 mm 0,0 UV-I 0 W/m 5,7 C 6,1 C 6,4 km/h (2 Bft) 100,00 %
21.11.2016 18:10 6,1 C 97 % 1008,4 hPa 0,0 l/m 4,6 km/h (1 Bft) SW 236 0 min 0,000 mm 0,0 UV-I 0 W/m 5,7 C 6,1 C 6,4 km/h (2 Bft) 100,00 %
21.11.2016 18:12 6,1 C 97 % 1008,4 hPa 0,0 l/m 5,5 km/h (1 Bft) SW 227 0 min 0,000 mm 0,0 UV-I 0 W/m 5,7 C 6,1 C 6,4 km/h (2 Bft) 100,00 %
21.11.2016 18:14 6,1 C 97 % 1008,4 hPa 0,0 l/m 2,3 km/h (1 Bft) SW 227 0 min 0,000 mm 0,0 UV-I 0 W/m 5,7 C 6,1 C 4,8 km/h (1 Bft) 100,00 %
21.11.2016 18:16 5,9 C 97 % 1008,5 hPa 0,0 l/m 3,2 km/h (1 Bft) SW 225 0 min 0,000 mm 0,0 UV-I 0 W/m 5,5 C 5,9 C 4,8 km/h (1 Bft) 100,00 %
21.11.2016 18:18 5,9 C 97 % 1008,5 hPa 0,0 l/m 3,3 km/h (1 Bft) SW 225 0 min 0,000 mm 0,0 UV-I 0 W/m 5,5 C 5,9 C 4,8 km/h (1 Bft) 95,12 %
21.11.2016 18:20 5,8 C 97 % 1008,5 hPa 0,0 l/m 2,5 km/h (1 Bft) SW 225 0 min 0,000 mm 0,0 UV-I 0 W/m 5,4 C 5,8 C 3,2 km/h (1 Bft) 97,73 %
21.11.2016 18:22 5,9 C 97 % 1008,5 hPa 0,0 l/m 3,8 km/h (1 Bft) SW 225 0 min 0,000 mm 0,0 UV-I 0 W/m 5,5 C 5,9 C 4,8 km/h (1 Bft) 100,00 %
21.11.2016 18:24 5,9 C 97 % 1008,5 hPa 0,0 l/m 1,4 km/h (1 Bft) SW 225 0 min 0,000 mm 0,0 UV-I 0 W/m 5,5 C 5,9 C 3,2 km/h (1 Bft) 100,00 %
21.11.2016 18:26 5,8 C 97 % 1008,5 hPa 0,0 l/m 1,9 km/h (1 Bft) SW 225 0 min 0,000 mm 0,0 UV-I 0 W/m 5,4 C 5,8 C 3,2 km/h (1 Bft) 100,00 %
21.11.2016 18:28 5,8 C 97 % 1008,5 hPa 0,0 l/m 2,3 km/h (1 Bft) SW 225 0 min 0,000 mm 0,0 UV-I 0 W/m 5,4 C 5,8 C 3,2 km/h (1 Bft) 97,37 %
21.11.2016 18:30 5,9 C 97 % 1008,5 hPa 0,0 l/m 3,6 km/h (1 Bft) SW 225 0 min 0,000 mm 0,0 UV-I 0 W/m 5,5 C 5,9 C 4,8 km/h (1 Bft) 100,00 %
21.11.2016 18:32 5,9 C 98 % 1008,6 hPa 0,0 l/m 3,2 km/h (1 Bft) SW 225 0 min 0,000 mm 0,0 UV-I 0 W/m 5,6 C 5,9 C 6,4 km/h (2 Bft) 100,00 %
21.11.2016 18:34 5,9 C 98 % 1008,6 hPa 0,0 l/m 1,5 km/h (1 Bft) SW 223 0 min 0,000 mm 0,0 UV-I 0 W/m 5,6 C 5,9 C 3,2 km/h (1 Bft) 100,00 %
21.11.2016 18:36 5,8 C 97 % 1008,6 hPa 0,0 l/m 3,0 km/h (1 Bft) S-SW 204 0 min 0,000 mm 0,0 UV-I 0 W/m 5,4 C 5,8 C 4,8 km/h (1 Bft) 100,00 %
21.11.2016 18:38 5,9 C 97 % 1008,6 hPa 0,0 l/m 2,2 km/h (1 Bft) S-SW 204 0 min 0,000 mm 0,0 UV-I 0 W/m 5,5 C 5,9 C 3,2 km/h (1 Bft) 98,00 %
21.11.2016 18:40 5,9 C 97 % 1008,6 hPa 0,0 l/m 3,5 km/h (1 Bft) S-SW 204 0 min 0,000 mm 0,0 UV-I 0 W/m 5,5 C 5,9 C 6,4 km/h (2 Bft) 100,00 %
21.11.2016 18:42 6,0 C 98 % 1008,5 hPa 0,0 l/m 4,1 km/h (1 Bft) S-SW 202 0 min 0,000 mm 0,0 UV-I 0 W/m 5,7 C 6,0 C 6,4 km/h (2 Bft) 100,00 %
21.11.2016 18:44 5,9 C 97 % 1008,5 hPa 0,0 l/m 1,4 km/h (1 Bft) S-SW 201 0 min 0,000 mm 0,0 UV-I 0 W/m 5,5 C 5,9 C 3,2 km/h (1 Bft) 100,00 %
21.11.2016 18:46 5,8 C 97 % 1008,6 hPa 0,0 l/m 1,9 km/h (1 Bft) S-SW 201 0 min 0,000 mm 0,0 UV-I 0 W/m 5,4 C 5,8 C 3,2 km/h (1 Bft) 100,00 %
21.11.2016 18:48 5,8 C 97 % 1008,6 hPa 0,0 l/m 2,0 km/h (1 Bft) S-SW 201 0 min 0,000 mm 0,0 UV-I 0 W/m 5,4 C 5,8 C 3,2 km/h (1 Bft) 100,00 %
21.11.2016 18:50 5,9 C 98 % 1008,6 hPa 0,0 l/m 1,2 km/h (1 Bft) S-SW 201 0 min 0,000 mm 0,0 UV-I 0 W/m 5,6 C 5,9 C 3,2 km/h (1 Bft) 100,00 %
21.11.2016 18:52 5,9 C 97 % 1008,7 hPa 0,0 l/m 3,5 km/h (1 Bft) S-SW 201 0 min 0,000 mm 0,0 UV-I 0 W/m 5,5 C 5,9 C 4,8 km/h (1 Bft) 100,00 %
21.11.2016 18:54 5,8 C 98 % 1008,7 hPa 0,0 l/m 1,8 km/h (1 Bft) S-SW 201 0 min 0,000 mm 0,0 UV-I 0 W/m 5,5 C 5,8 C 4,8 km/h (1 Bft) 100,00 %
21.11.2016 18:56 5,5 C 97 % 1008,7 hPa 0,0 l/m 2,0 km/h (1 Bft) S-SW 201 0 min 0,000 mm 0,0 UV-I 0 W/m 5,1 C 5,5 C 6,4 km/h (2 Bft) 100,00 %
21.11.2016 18:58 5,4 C 97 % 1008,6 hPa 0,0 l/m 3,9 km/h (1 Bft) S-SW 201 0 min 0,000 mm 0,0 UV-I 0 W/m 5,0 C 5,4 C 6,4 km/h (2 Bft) 100,00 %
21.11.2016 19:00 5,5 C 97 % 1008,7 hPa 0,0 l/m 0,8 km/h (0 Bft) S-SW 201 0 min 0,000 mm 0,0 UV-I 0 W/m 5,1 C 5,5 C 3,2 km/h (1 Bft) 100,00 %
21.11.2016 19:02 5,7 C 98 % 1008,6 hPa 0,0 l/m 0,4 km/h (0 Bft) S-SW 201 0 min 0,000 mm 0,0 UV-I 0 W/m 5,4 C 5,7 C 1,6 km/h (1 Bft) 100,00 %
21.11.2016 19:04 5,7 C 98 % 1008,7 hPa 0,0 l/m 0,7 km/h (0 Bft) S-SW 201 0 min 0,000 mm 0,0 UV-I 0 W/m 5,4 C 5,7 C 3,2 km/h (1 Bft) 100,00 %
21.11.2016 19:06 5,7 C 98 % 1008,7 hPa 0,0 l/m 0,0 km/h (0 Bft) S-SW 201 0 min 0,000 mm 0,0 UV-I 0 W/m 5,4 C 5,7 C 0,0 km/h (0 Bft) 100,00 %
21.11.2016 19:08 5,7 C 98 % 1008,7 hPa 0,0 l/m 0,0 km/h (0 Bft) S-SW 201 0 min 0,000 mm 0,0 UV-I 0 W/m 5,4 C 5,7 C 0,0 km/h (0 Bft) 100,00 %
21.11.2016 19:10 5,6 C 97 % 1008,7 hPa 0,0 l/m 1,4 km/h (1 Bft) S-SW 201 0 min 0,000 mm 0,0 UV-I 0 W/m 5,2 C 5,6 C 4,8 km/h (1 Bft) 100,00 %
21.11.2016 19:12 5,4 C 97 % 1008,8 hPa 0,0 l/m 5,7 km/h (1 Bft) S-SW 201 0 min 0,000 mm 0,0 UV-I 0 W/m 5,0 C 5,4 C 6,4 km/h (2 Bft) 100,00 %
21.11.2016 19:14 5,2 C 97 % 1008,8 hPa 0,0 l/m 3,6 km/h (1 Bft) S-SW 198 0 min 0,000 mm 0,0 UV-I 0 W/m 4,8 C 5,2 C 4,8 km/h (1 Bft) 100,00 %
21.11.2016 19:16 5,1 C 97 % 1008,8 hPa 0,0 l/m 1,9 km/h (1 Bft) S-SW 198 0 min 0,000 mm 0,0 UV-I 0 W/m 4,7 C 5,1 C 3,2 km/h (1 Bft) 97,87 %
21.11.2016 19:18 4,8 C 97 % 1008,8 hPa 0,0 l/m 0,8 km/h (0 Bft) S-SW 198 0 min 0,000 mm 0,0 UV-I 0 W/m 4,4 C 4,8 C 1,6 km/h (1 Bft) 100,00 %
21.11.2016 19:20 4,9 C 97 % 1008,9 hPa 0,0 l/m 2,5 km/h (1 Bft) S-SW 198 0 min 0,000 mm 0,0 UV-I 0 W/m 4,5 C 4,9 C 3,2 km/h (1 Bft) 100,00 %
21.11.2016 19:22 5,0 C 98 % 1008,8 hPa 0,0 l/m 2,8 km/h (1 Bft) S-SW 198 0 min 0,000 mm 0,0 UV-I 0 W/m 4,7 C 5,0 C 4,8 km/h (1 Bft) 100,00 %
21.11.2016 19:24 5,1 C 98 % 1008,8 hPa 0,0 l/m 3,6 km/h (1 Bft) S-SW 198 0 min 0,000 mm 0,0 UV-I 0 W/m 4,8 C 5,1 C 4,8 km/h (1 Bft) 100,00 %
21.11.2016 19:26 5,1 C 98 % 1008,8 hPa 0,0 l/m 2,1 km/h (1 Bft) S-SW 197 0 min 0,000 mm 0,0 UV-I 0 W/m 4,8 C 5,1 C 4,8 km/h (1 Bft) 100,00 %
21.11.2016 19:28 5,2 C 98 % 1008,8 hPa 0,0 l/m 3,1 km/h (1 Bft) S-SW 196 0 min 0,000 mm 0,0 UV-I 0 W/m 4,9 C 5,2 C 4,8 km/h (1 Bft) 97,87 %
21.11.2016 19:30 5,4 C 98 % 1008,8 hPa 0,0 l/m 2,1 km/h (1 Bft) S-SW 196 0 min 0,000 mm 0,0 UV-I 0 W/m 5,1 C 5,4 C 4,8 km/h (1 Bft) 100,00 %
21.11.2016 19:32 5,4 C 98 % 1008,9 hPa 0,0 l/m 4,5 km/h (1 Bft) S-SW 196 0 min 0,000 mm 0,0 UV-I 0 W/m 5,1 C 5,4 C 4,8 km/h (1 Bft) 100,00 %
21.11.2016 19:34 5,4 C 98 % 1008,9 hPa 0,0 l/m 4,0 km/h (1 Bft) S-SW 196 0 min 0,000 mm 0,0 UV-I 0 W/m 5,1 C 5,4 C 4,8 km/h (1 Bft) 100,00 %
21.11.2016 19:36 5,5 C 98 % 1008,9 hPa 0,0 l/m 2,8 km/h (1 Bft) S-SW 196 0 min 0,000 mm 0,0 UV-I 0 W/m 5,2 C 5,5 C 4,8 km/h (1 Bft) 100,00 %
21.11.2016 19:38 5,3 C 98 % 1008,9 hPa 0,0 l/m 2,5 km/h (1 Bft) S-SW 196 0 min 0,000 mm 0,0 UV-I 0 W/m 5,0 C 5,3 C 3,2 km/h (1 Bft) 94,00 %
21.11.2016 19:40 5,2 C 98 % 1009,0 hPa 0,0 l/m 1,5 km/h (1 Bft) S-SW 196 0 min 0,000 mm 0,0 UV-I 0 W/m 4,9 C 5,2 C 3,2 km/h (1 Bft) 97,37 %
21.11.2016 19:42 5,3 C 98 % 1009,0 hPa 0,0 l/m 1,6 km/h (1 Bft) S-SW 196 0 min 0,000 mm 0,0 UV-I 0 W/m 5,0 C 5,3 C 4,8 km/h (1 Bft) 96,43 %
21.11.2016 19:44 5,3 C 98 % 1009,0 hPa 0,0 l/m 3,2 km/h (1 Bft) S-SW 196 0 min 0,000 mm 0,0 UV-I 0 W/m 5,0 C 5,3 C 4,8 km/h (1 Bft) 94,74 %
21.11.2016 19:46 5,2 C 98 % 1008,9 hPa 0,0 l/m 2,7 km/h (1 Bft) S-SW 196 0 min 0,000 mm 0,0 UV-I 0 W/m 4,9 C 5,2 C 4,8 km/h (1 Bft) 94,00 %
21.11.2016 19:48 5,1 C 98 % 1008,9 hPa 0,0 l/m 1,6 km/h (1 Bft) S-SW 196 0 min 0,000 mm 0,0 UV-I 0 W/m 4,8 C 5,1 C 3,2 km/h (1 Bft) 97,87 %
21.11.2016 19:50 4,9 C 97 % 1008,9 hPa 0,0 l/m 1,6 km/h (1 Bft) S-SW 196 0 min 0,000 mm 0,0 UV-I 0 W/m 4,5 C 4,9 C 3,2 km/h (1 Bft) 97,87 %
21.11.2016 19:52 4,9 C 97 % 1008,9 hPa 0,0 l/m 2,3 km/h (1 Bft) S-SW 196 0 min 0,000 mm 0,0 UV-I 0 W/m 4,5 C 4,9 C 4,8 km/h (1 Bft) 95,74 %
21.11.2016 19:54 4,9 C 98 % 1009,0 hPa 0,0 l/m 2,2 km/h (1 Bft) S-SW 196 0 min 0,000 mm 0,0 UV-I 0 W/m 4,6 C 4,9 C 3,2 km/h (1 Bft) 97,22 %
21.11.2016 19:56 5,0 C 98 % 1008,9 hPa 0,0 l/m 1,4 km/h (1 Bft) S-SW 196 0 min 0,000 mm 0,0 UV-I 0 W/m 4,7 C 5,0 C 3,2 km/h (1 Bft) 98,28 %
21.11.2016 19:58 5,2 C 98 % 1008,9 hPa 0,0 l/m 0,0 km/h (0 Bft) S-SW 196 0 min 0,000 mm 0,0 UV-I 0 W/m 4,9 C 5,2 C 1,6 km/h (1 Bft) 97,62 %
21.11.2016 20:00 5,2 C 98 % 1008,9 hPa 0,0 l/m 1,1 km/h (1 Bft) S-SW 196 0 min 0,000 mm 0,0 UV-I 0 W/m 4,9 C 5,2 C 3,2 km/h (1 Bft) 98,00 %
21.11.2016 20:02 5,0 C 98 % 1008,9 hPa 0,0 l/m 2,2 km/h (1 Bft) S-SW 196 0 min 0,000 mm 0,0 UV-I 0 W/m 4,7 C 5,0 C 4,8 km/h (1 Bft) 96,15 %
21.11.2016 20:04 5,1 C 98 % 1009,0 hPa 0,0 l/m 1,1 km/h (1 Bft) S-SW 196 0 min 0,000 mm 0,0 UV-I 0 W/m 4,8 C 5,1 C 3,2 km/h (1 Bft) 97,87 %
21.11.2016 20:06 5,1 C 98 % 1009,0 hPa 0,0 l/m 0,8 km/h (0 Bft) S-SW 196 0 min 0,000 mm 0,0 UV-I 0 W/m 4,8 C 5,1 C 3,2 km/h (1 Bft) 95,83 %
21.11.2016 20:08 4,9 C 98 % 1009,0 hPa 0,0 l/m 0,0 km/h (0 Bft) S-SW 196 0 min 0,000 mm 0,0 UV-I 0 W/m 4,6 C 4,9 C 0,0 km/h (0 Bft) 97,87 %
21.11.2016 20:10 4,9 C 98 % 1009,0 hPa 0,0 l/m 0,2 km/h (0 Bft) S-SW 196 0 min 0,000 mm 0,0 UV-I 0 W/m 4,6 C 4,9 C 1,6 km/h (1 Bft) 97,37 %
21.11.2016 20:12 4,9 C 98 % 1009,0 hPa 0,0 l/m 2,2 km/h (1 Bft) S-SW 196 0 min 0,000 mm 0,0 UV-I 0 W/m 4,6 C 4,9 C 3,2 km/h (1 Bft) 97,87 %
21.11.2016 20:14 4,8 C 98 % 1009,0 hPa 0,0 l/m 3,4 km/h (1 Bft) S-SW 196 0 min 0,000 mm 0,0 UV-I 0 W/m 4,5 C 4,8 C 4,8 km/h (1 Bft) 97,87 %
21.11.2016 20:16 4,8 C 98 % 1009,0 hPa 0,0 l/m 2,4 km/h (1 Bft) S-SW 196 0 min 0,000 mm 0,0 UV-I 0 W/m 4,5 C 4,8 C 4,8 km/h (1 Bft) 97,87 %
21.11.2016 20:19 5,1 C 98 % 1009,1 hPa 0,0 l/m 1,4 km/h (1 Bft) S-SW 196 0 min 0,000 mm 0,0 UV-I 0 W/m 4,8 C 5,1 C 3,2 km/h (1 Bft) 94,74 %
21.11.2016 20:20 5,0 C 98 % 1009,1 hPa 0,0 l/m 2,4 km/h (1 Bft) S-SW 196 0 min 0,000 mm 0,0 UV-I 0 W/m 4,7 C 5,0 C 3,2 km/h (1 Bft) 100,00 %
21.11.2016 20:22 4,8 C 98 % 1009,0 hPa 0,0 l/m 3,1 km/h (1 Bft) S-SW 196 0 min 0,000 mm 0,0 UV-I 0 W/m 4,5 C 4,8 C 4,8 km/h (1 Bft) 100,00 %
21.11.2016 20:24 4,8 C 98 % 1009,0 hPa 0,0 l/m 0,7 km/h (0 Bft) S-SW 196 0 min 0,000 mm 0,0 UV-I 0 W/m 4,5 C 4,8 C 1,6 km/h (1 Bft) 98,11 %
21.11.2016 20:26 4,5 C 97 % 1009,0 hPa 0,0 l/m 2,1 km/h (1 Bft) S-SW 196 0 min 0,000 mm 0,0 UV-I 0 W/m 4,1 C 4,5 C 3,2 km/h (1 Bft) 100,00 %
21.11.2016 20:28 4,4 C 98 % 1009,1 hPa 0,0 l/m 2,8 km/h (1 Bft) S-SW 196 0 min 0,000 mm 0,0 UV-I 0 W/m 4,1 C 4,4 C 4,8 km/h (1 Bft) 100,00 %
21.11.2016 20:30 4,6 C 98 % 1009,1 hPa 0,0 l/m 2,0 km/h (1 Bft) S-SW 196 0 min 0,000 mm 0,0 UV-I 0 W/m 4,3 C 4,6 C 4,8 km/h (1 Bft) 100,00 %
21.11.2016 20:32 4,7 C 98 % 1009,1 hPa 0,0 l/m 2,5 km/h (1 Bft) S-SW 196 0 min 0,000 mm 0,0 UV-I 0 W/m 4,4 C 4,7 C 4,8 km/h (1 Bft) 97,37 %
21.11.2016 20:34 4,7 C 98 % 1009,1 hPa 0,0 l/m 2,6 km/h (1 Bft) S-SW 196 0 min 0,000 mm 0,0 UV-I 0 W/m 4,4 C 4,7 C 4,8 km/h (1 Bft) 100,00 %
21.11.2016 20:36 4,5 C 98 % 1009,1 hPa 0,0 l/m 0,5 km/h (0 Bft) S-SW 196 0 min 0,000 mm 0,0 UV-I 0 W/m 4,2 C 4,5 C 1,6 km/h (1 Bft) 97,14 %
21.11.2016 20:38 4,4 C 98 % 1009,1 hPa 0,0 l/m 1,4 km/h (1 Bft) S-SW 196 0 min 0,000 mm 0,0 UV-I 0 W/m 4,1 C 4,4 C 3,2 km/h (1 Bft) 100,00 %
21.11.2016 20:40 4,3 C 98 % 1009,1 hPa 0,0 l/m 1,9 km/h (1 Bft) S-SW 196 0 min 0,000 mm 0,0 UV-I 0 W/m 4,0 C 4,3 C 3,2 km/h (1 Bft) 100,00 %
21.11.2016 20:42 4,3 C 98 % 1009,2 hPa 0,0 l/m 1,1 km/h (1 Bft) S-SW 196 0 min 0,000 mm 0,0 UV-I 0 W/m 4,0 C 4,3 C 1,6 km/h (1 Bft) 98,00 %
21.11.2016 20:44 4,5 C 98 % 1009,2 hPa 0,0 l/m 3,3 km/h (1 Bft) S-SW 196 0 min 0,000 mm 0,0 UV-I 0 W/m 4,2 C 4,5 C 4,8 km/h (1 Bft) 98,00 %
21.11.2016 20:46 4,6 C 98 % 1009,2 hPa 0,0 l/m 2,1 km/h (1 Bft) S-SW 196 0 min 0,000 mm 0,0 UV-I 0 W/m 4,3 C 4,6 C 4,8 km/h (1 Bft) 100,00 %
21.11.2016 20:48 4,7 C 98 % 1009,1 hPa 0,0 l/m 0,0 km/h (0 Bft) S-SW 196 0 min 0,000 mm 0,0 UV-I 0 W/m 4,4 C 4,7 C 1,6 km/h (1 Bft) 100,00 %
21.11.2016 20:50 4,7 C 98 % 1009,1 hPa 0,0 l/m 0,2 km/h (0 Bft) S-SW 196 0 min 0,000 mm 0,0 UV-I 0 W/m 4,4 C 4,7 C 1,6 km/h (1 Bft) 100,00 %
21.11.2016 20:52 4,6 C 98 % 1009,1 hPa 0,0 l/m 0,2 km/h (0 Bft) S-SW 196 0 min 0,000 mm 0,0 UV-I 0 W/m 4,3 C 4,6 C 1,6 km/h (1 Bft) 100,00 %
21.11.2016 20:54 4,5 C 98 % 1009,1 hPa 0,0 l/m 1,8 km/h (1 Bft) S-SW 196 0 min 0,000 mm 0,0 UV-I 0 W/m 4,2 C 4,5 C 3,2 km/h (1 Bft) 100,00 %
21.11.2016 20:56 4,5 C 98 % 1009,1 hPa 0,0 l/m 3,2 km/h (1 Bft) S-SW 196 0 min 0,000 mm 0,0 UV-I 0 W/m 4,2 C 4,5 C 4,8 km/h (1 Bft) 100,00 %
21.11.2016 20:58 4,4 C 98 % 1009,2 hPa 0,0 l/m 0,7 km/h (0 Bft) S-SW 196 0 min 0,000 mm 0,0 UV-I 0 W/m 4,1 C 4,4 C 4,8 km/h (1 Bft) 100,00 %
21.11.2016 21:00 4,6 C 98 % 1009,1 hPa 0,0 l/m 0,7 km/h (0 Bft) S-SW 196 0 min 0,000 mm 0,0 UV-I 0 W/m 4,3 C 4,6 C 1,6 km/h (1 Bft) 100,00 %
21.11.2016 21:02 4,4 C 98 % 1009,2 hPa 0,0 l/m 2,4 km/h (1 Bft) S-SW 196 0 min 0,000 mm 0,0 UV-I 0 W/m 4,1 C 4,4 C 3,2 km/h (1 Bft) 100,00 %
21.11.2016 21:04 4,4 C 98 % 1009,2 hPa 0,0 l/m 3,4 km/h (1 Bft) S-SW 196 0 min 0,000 mm 0,0 UV-I 0 W/m 4,1 C 4,4 C 4,8 km/h (1 Bft) 97,87 %
21.11.2016 21:06 4,7 C 98 % 1009,2 hPa 0,0 l/m 2,1 km/h (1 Bft) S-SW 196 0 min 0,000 mm 0,0 UV-I 0 W/m 4,4 C 4,7 C 3,2 km/h (1 Bft) 100,00 %
21.11.2016 21:08 4,9 C 98 % 1009,2 hPa 0,0 l/m 0,6 km/h (0 Bft) S-SW 196 0 min 0,000 mm 0,0 UV-I 0 W/m 4,6 C 4,9 C 1,6 km/h (1 Bft) 100,00 %
21.11.2016 21:10 4,9 C 98 % 1009,2 hPa 0,0 l/m 1,8 km/h (1 Bft) S-SW 196 0 min 0,000 mm 0,0 UV-I 0 W/m 4,6 C 4,9 C 3,2 km/h (1 Bft) 97,87 %
21.11.2016 21:12 4,9 C 99 % 1009,2 hPa 0,0 l/m 1,8 km/h (1 Bft) S-SW 196 0 min 0,000 mm 0,0 UV-I 0 W/m 4,8 C 4,9 C 3,2 km/h (1 Bft) 100,00 %
21.11.2016 21:14 4,7 C 98 % 1009,2 hPa 0,0 l/m 0,3 km/h (0 Bft) S-SW 196 0 min 0,000 mm 0,0 UV-I 0 W/m 4,4 C 4,7 C 1,6 km/h (1 Bft) 95,74 %
21.11.2016 21:16 4,3 C 98 % 1009,2 hPa 0,0 l/m 3,2 km/h (1 Bft) S-SW 196 0 min 0,000 mm 0,0 UV-I 0 W/m 4,0 C 4,3 C 4,8 km/h (1 Bft) 97,87 %
21.11.2016 21:18 4,0 C 98 % 1009,1 hPa 0,0 l/m 2,7 km/h (1 Bft) S-SW 196 0 min 0,000 mm 0,0 UV-I 0 W/m 3,7 C 4,0 C 4,8 km/h (1 Bft) 100,00 %
21.11.2016 21:20 4,0 C 98 % 1009,2 hPa 0,0 l/m 0,9 km/h (0 Bft) S-SW 196 0 min 0,000 mm 0,0 UV-I 0 W/m 3,7 C 4,0 C 1,6 km/h (1 Bft) 100,00 %
21.11.2016 21:22 4,1 C 98 % 1009,2 hPa 0,0 l/m 1,4 km/h (1 Bft) S-SW 196 0 min 0,000 mm 0,0 UV-I 0 W/m 3,8 C 4,1 C 3,2 km/h (1 Bft) 97,92 %
21.11.2016 21:24 4,3 C 98 % 1009,3 hPa 0,0 l/m 1,1 km/h (1 Bft) S-SW 196 0 min 0,000 mm 0,0 UV-I 0 W/m 4,0 C 4,3 C 3,2 km/h (1 Bft) 100,00 %
21.11.2016 21:26 4,3 C 98 % 1009,2 hPa 0,0 l/m 2,1 km/h (1 Bft) S-SW 196 0 min 0,000 mm 0,0 UV-I 0 W/m 4,0 C 4,3 C 3,2 km/h (1 Bft) 100,00 %
21.11.2016 21:28 4,1 C 98 % 1009,2 hPa 0,0 l/m 0,1 km/h (0 Bft) S-SW 196 0 min 0,000 mm 0,0 UV-I 0 W/m 3,8 C 4,1 C 1,6 km/h (1 Bft) 100,00 %
21.11.2016 21:30 4,0 C 98 % 1009,2 hPa 0,0 l/m 0,0 km/h (0 Bft) S-SW 196 0 min 0,000 mm 0,0 UV-I 0 W/m 3,7 C 4,0 C 0,0 km/h (0 Bft) 100,00 %
21.11.2016 21:32 4,0 C 98 % 1009,2 hPa 0,0 l/m 0,4 km/h (0 Bft) S-SW 196 0 min 0,000 mm 0,0 UV-I 0 W/m 3,7 C 4,0 C 3,2 km/h (1 Bft) 100,00 %
21.11.2016 21:34 3,9 C 98 % 1009,2 hPa 0,0 l/m 2,3 km/h (1 Bft) S-SW 196 0 min 0,000 mm 0,0 UV-I 0 W/m 3,6 C 3,9 C 3,2 km/h (1 Bft) 100,00 %
21.11.2016 21:36 3,8 C 98 % 1009,2 hPa 0,0 l/m 2,3 km/h (1 Bft) S-SW 196 0 min 0,000 mm 0,0 UV-I 0 W/m 3,5 C 3,8 C 3,2 km/h (1 Bft) 100,00 %
21.11.2016 21:38 4,1 C 98 % 1009,2 hPa 0,0 l/m 3,0 km/h (1 Bft) S-SW 196 0 min 0,000 mm 0,0 UV-I 0 W/m 3,8 C 4,1 C 4,8 km/h (1 Bft) 98,11 %
21.11.2016 21:40 4,3 C 98 % 1009,2 hPa 0,0 l/m 4,3 km/h (1 Bft) S-SW 196 0 min 0,000 mm 0,0 UV-I 0 W/m 4,0 C 4,3 C 4,8 km/h (1 Bft) 100,00 %
21.11.2016 21:42 4,5 C 98 % 1009,2 hPa 0,0 l/m 2,7 km/h (1 Bft) S-SW 196 0 min 0,000 mm 0,0 UV-I 0 W/m 4,2 C 4,5 C 3,2 km/h (1 Bft) 100,00 %
21.11.2016 21:44 4,3 C 98 % 1009,2 hPa 0,0 l/m 2,2 km/h (1 Bft) S-SW 196 0 min 0,000 mm 0,0 UV-I 0 W/m 4,0 C 4,3 C 3,2 km/h (1 Bft) 100,00 %
21.11.2016 21:46 4,2 C 98 % 1009,2 hPa 0,0 l/m 0,2 km/h (0 Bft) S-SW 196 0 min 0,000 mm 0,0 UV-I 0 W/m 3,9 C 4,2 C 1,6 km/h (1 Bft) 97,87 %
21.11.2016 21:48 4,2 C 98 % 1009,2 hPa 0,0 l/m 0,2 km/h (0 Bft) S-SW 196 0 min 0,000 mm 0,0 UV-I 0 W/m 3,9 C 4,2 C 1,6 km/h (1 Bft) 100,00 %
21.11.2016 21:50 4,3 C 98 % 1009,2 hPa 0,0 l/m 2,0 km/h (1 Bft) S-SW 196 0 min 0,000 mm 0,0 UV-I 0 W/m 4,0 C 4,3 C 4,8 km/h (1 Bft) 100,00 %
21.11.2016 21:52 4,5 C 98 % 1009,2 hPa 0,0 l/m 4,0 km/h (1 Bft) S-SW 196 0 min 0,000 mm 0,0 UV-I 0 W/m 4,2 C 4,5 C 4,8 km/h (1 Bft) 100,00 %
21.11.2016 21:54 4,6 C 98 % 1009,1 hPa 0,0 l/m 3,3 km/h (1 Bft) S-SW 196 0 min 0,000 mm 0,0 UV-I 0 W/m 4,3 C 4,6 C 4,8 km/h (1 Bft) 100,00 %
21.11.2016 21:56 4,6 C 99 % 1009,2 hPa 0,0 l/m 0,7 km/h (0 Bft) S-SW 196 0 min 0,000 mm 0,0 UV-I 0 W/m 4,5 C 4,6 C 1,6 km/h (1 Bft) 100,00 %
21.11.2016 21:58 4,3 C 98 % 1009,1 hPa 0,0 l/m 1,8 km/h (1 Bft) S-SW 196 0 min 0,000 mm 0,0 UV-I 0 W/m 4,0 C 4,3 C 4,8 km/h (1 Bft) 100,00 %
21.11.2016 22:00 4,3 C 98 % 1009,1 hPa 0,0 l/m 1,3 km/h (1 Bft) S-SW 196 0 min 0,000 mm 0,0 UV-I 0 W/m 4,0 C 4,3 C 3,2 km/h (1 Bft) 100,00 %
21.11.2016 22:02 4,6 C 99 % 1009,2 hPa 0,0 l/m 0,0 km/h (0 Bft) S-SW 196 0 min 0,000 mm 0,0 UV-I 0 W/m 4,5 C 4,6 C 0,0 km/h (0 Bft) 100,00 %
21.11.2016 22:04 4,6 C 99 % 1009,1 hPa 0,0 l/m 1,1 km/h (1 Bft) S-SW 196 0 min 0,000 mm 0,0 UV-I 0 W/m 4,5 C 4,6 C 3,2 km/h (1 Bft) 100,00 %
21.11.2016 22:06 4,3 C 98 % 1009,1 hPa 0,0 l/m 1,7 km/h (1 Bft) S-SW 196 0 min 0,000 mm 0,0 UV-I 0 W/m 4,0 C 4,3 C 3,2 km/h (1 Bft) 100,00 %
21.11.2016 22:08 4,1 C 98 % 1009,1 hPa 0,0 l/m 2,5 km/h (1 Bft) S-SW 196 0 min 0,000 mm 0,0 UV-I 0 W/m 3,8 C 4,1 C 3,2 km/h (1 Bft) 100,00 %
21.11.2016 22:10 3,8 C 98 % 1009,1 hPa 0,0 l/m 3,0 km/h (1 Bft) S-SW 196 0 min 0,000 mm 0,0 UV-I 0 W/m 3,5 C 3,8 C 4,8 km/h (1 Bft) 100,00 %
21.11.2016 22:12 3,7 C 98 % 1009,1 hPa 0,0 l/m 4,3 km/h (1 Bft) S-SW 196 0 min 0,000 mm 0,0 UV-I 0 W/m 3,4 C 3,7 C 4,8 km/h (1 Bft) 100,00 %
21.11.2016 22:14 3,7 C 98 % 1009,2 hPa 0,0 l/m 4,0 km/h (1 Bft) S-SW 196 0 min 0,000 mm 0,0 UV-I 0 W/m 3,4 C 3,7 C 4,8 km/h (1 Bft) 100,00 %
21.11.2016 22:16 3,6 C 98 % 1009,2 hPa 0,0 l/m 4,5 km/h (1 Bft) S-SW 196 0 min 0,000 mm 0,0 UV-I 0 W/m 3,3 C 3,6 C 6,4 km/h (2 Bft) 100,00 %
21.11.2016 22:18 3,6 C 98 % 1009,2 hPa 0,0 l/m 5,0 km/h (1 Bft) S-SW 196 0 min 0,000 mm 0,0 UV-I 0 W/m 3,3 C 3,6 C 6,4 km/h (2 Bft) 96,00 %
21.11.2016 22:20 3,8 C 98 % 1009,2 hPa 0,0 l/m 4,6 km/h (1 Bft) S-SW 196 0 min 0,000 mm 0,0 UV-I 0 W/m 3,5 C 3,8 C 6,4 km/h (2 Bft) 95,74 %
21.11.2016 22:22 3,9 C 98 % 1009,3 hPa 0,0 l/m 3,0 km/h (1 Bft) S-SW 196 0 min 0,000 mm 0,0 UV-I 0 W/m 3,6 C 3,9 C 4,8 km/h (1 Bft) 97,56 %
21.11.2016 22:24 4,1 C 98 % 1009,3 hPa 0,0 l/m 3,7 km/h (1 Bft) S-SW 196 0 min 0,000 mm 0,0 UV-I 0 W/m 3,8 C 4,1 C 4,8 km/h (1 Bft) 98,11 %
21.11.2016 22:26 4,2 C 98 % 1009,3 hPa 0,0 l/m 3,6 km/h (1 Bft) S-SW 196 0 min 0,000 mm 0,0 UV-I 0 W/m 3,9 C 4,2 C 4,8 km/h (1 Bft) 97,87 %
21.11.2016 22:28 4,3 C 98 % 1009,3 hPa 0,0 l/m 1,6 km/h (1 Bft) S-SW 196 0 min 0,000 mm 0,0 UV-I 0 W/m 4,0 C 4,3 C 3,2 km/h (1 Bft) 97,37 %
21.11.2016 22:30 4,2 C 98 % 1009,3 hPa 0,0 l/m 2,2 km/h (1 Bft) S-SW 196 0 min 0,000 mm 0,0 UV-I 0 W/m 3,9 C 4,2 C 4,8 km/h (1 Bft) 98,11 %
21.11.2016 22:32 4,3 C 99 % 1009,3 hPa 0,0 l/m 4,0 km/h (1 Bft) S-SW 196 0 min 0,000 mm 0,0 UV-I 0 W/m 4,2 C 4,3 C 4,8 km/h (1 Bft) 97,87 %
21.11.2016 22:34 4,4 C 99 % 1009,3 hPa 0,0 l/m 0,9 km/h (0 Bft) S-SW 196 0 min 0,000 mm 0,0 UV-I 0 W/m 4,3 C 4,4 C 3,2 km/h (1 Bft) 97,37 %
21.11.2016 22:36 4,6 C 99 % 1009,3 hPa 0,0 l/m 0,0 km/h (0 Bft) S-SW 196 0 min 0,000 mm 0,0 UV-I 0 W/m 4,5 C 4,6 C 0,0 km/h (0 Bft) 94,64 %
21.11.2016 22:38 4,8 C 99 % 1009,3 hPa 0,0 l/m 0,4 km/h (0 Bft) S-SW 196 0 min 0,000 mm 0,0 UV-I 0 W/m 4,7 C 4,8 C 1,6 km/h (1 Bft) 97,87 %
21.11.2016 22:40 4,8 C 99 % 1009,3 hPa 0,0 l/m 0,9 km/h (0 Bft) S-SW 196 0 min 0,000 mm 0,0 UV-I 0 W/m 4,7 C 4,8 C 3,2 km/h (1 Bft) 97,87 %
21.11.2016 22:42 4,3 C 99 % 1009,3 hPa 0,0 l/m 2,4 km/h (1 Bft) S-SW 196 0 min 0,000 mm 0,0 UV-I 0 W/m 4,2 C 4,3 C 3,2 km/h (1 Bft) 97,22 %
21.11.2016 22:44 4,1 C 98 % 1009,3 hPa 0,0 l/m 0,7 km/h (0 Bft) S-SW 196 0 min 0,000 mm 0,0 UV-I 0 W/m 3,8 C 4,1 C 1,6 km/h (1 Bft) 98,21 %
21.11.2016 22:46 4,3 C 99 % 1009,4 hPa 0,0 l/m 0,2 km/h (0 Bft) S-SW 196 0 min 0,000 mm 0,0 UV-I 0 W/m 4,2 C 4,3 C 1,6 km/h (1 Bft) 98,00 %
21.11.2016 22:48 4,1 C 98 % 1009,4 hPa 0,0 l/m 1,0 km/h (0 Bft) S-SW 196 0 min 0,000 mm 0,0 UV-I 0 W/m 3,8 C 4,1 C 1,6 km/h (1 Bft) 92,11 %
21.11.2016 22:50 3,9 C 98 % 1009,5 hPa 0,0 l/m 1,3 km/h (1 Bft) S-SW 196 0 min 0,000 mm 0,0 UV-I 0 W/m 3,6 C 3,9 C 3,2 km/h (1 Bft) 98,00 %
21.11.2016 22:52 3,7 C 98 % 1009,5 hPa 0,0 l/m 3,7 km/h (1 Bft) S-SW 196 0 min 0,000 mm 0,0 UV-I 0 W/m 3,4 C 3,7 C 4,8 km/h (1 Bft) 93,18 %
21.11.2016 22:54 3,6 C 98 % 1009,5 hPa 0,0 l/m 4,4 km/h (1 Bft) S-SW 196 0 min 0,000 mm 0,0 UV-I 0 W/m 3,3 C 3,6 C 4,8 km/h (1 Bft) 97,87 %
21.11.2016 22:56 3,5 C 98 % 1009,4 hPa 0,0 l/m 6,0 km/h (2 Bft) S-SW 196 0 min 0,000 mm 0,0 UV-I 0 W/m 3,2 C 3,5 C 8,0 km/h (2 Bft) 96,00 %
21.11.2016 22:58 3,4 C 98 % 1009,4 hPa 0,0 l/m 5,3 km/h (1 Bft) S-SW 196 0 min 0,000 mm 0,0 UV-I 0 W/m 3,1 C 3,4 C 6,4 km/h (2 Bft) 98,00 %
21.11.2016 23:00 3,8 C 98 % 1009,4 hPa 0,0 l/m 3,3 km/h (1 Bft) S-SW 196 0 min 0,000 mm 0,0 UV-I 0 W/m 3,5 C 3,8 C 4,8 km/h (1 Bft) 100,00 %
21.11.2016 23:02 3,9 C 98 % 1009,4 hPa 0,0 l/m 2,5 km/h (1 Bft) S-SW 196 0 min 0,000 mm 0,0 UV-I 0 W/m 3,6 C 3,9 C 3,2 km/h (1 Bft) 97,87 %
21.11.2016 23:04 3,8 C 98 % 1009,5 hPa 0,0 l/m 2,8 km/h (1 Bft) S-SW 196 0 min 0,000 mm 0,0 UV-I 0 W/m 3,5 C 3,8 C 3,2 km/h (1 Bft) 100,00 %
21.11.2016 23:06 3,8 C 98 % 1009,5 hPa 0,0 l/m 3,2 km/h (1 Bft) S-SW 196 0 min 0,000 mm 0,0 UV-I 0 W/m 3,5 C 3,8 C 4,8 km/h (1 Bft) 100,00 %
21.11.2016 23:08 4,1 C 99 % 1009,4 hPa 0,0 l/m 3,2 km/h (1 Bft) S-SW 196 0 min 0,000 mm 0,0 UV-I 0 W/m 4,0 C 4,1 C 4,8 km/h (1 Bft) 100,00 %
21.11.2016 23:10 4,7 C 99 % 1009,4 hPa 0,0 l/m 4,5 km/h (1 Bft) S-SW 196 0 min 0,000 mm 0,0 UV-I 0 W/m 4,6 C 4,7 C 6,4 km/h (2 Bft) 100,00 %
21.11.2016 23:12 4,7 C 99 % 1009,4 hPa 0,0 l/m 4,5 km/h (1 Bft) S-SW 196 0 min 0,000 mm 0,0 UV-I 0 W/m 4,6 C 4,7 C 6,4 km/h (2 Bft) 97,87 %
21.11.2016 23:14 4,3 C 99 % 1009,4 hPa 0,0 l/m 3,2 km/h (1 Bft) S-SW 196 0 min 0,000 mm 0,0 UV-I 0 W/m 4,2 C 4,3 C 4,8 km/h (1 Bft) 100,00 %
21.11.2016 23:16 4,2 C 99 % 1009,4 hPa 0,0 l/m 2,5 km/h (1 Bft) S-SW 196 0 min 0,000 mm 0,0 UV-I 0 W/m 4,1 C 4,2 C 4,8 km/h (1 Bft) 100,00 %
21.11.2016 23:18 4,2 C 99 % 1009,4 hPa 0,0 l/m 2,6 km/h (1 Bft) S-SW 196 0 min 0,000 mm 0,0 UV-I 0 W/m 4,1 C 4,2 C 3,2 km/h (1 Bft) 100,00 %
21.11.2016 23:20 4,3 C 99 % 1009,4 hPa 0,0 l/m 1,9 km/h (1 Bft) S-SW 196 0 min 0,000 mm 0,0 UV-I 0 W/m 4,2 C 4,3 C 3,2 km/h (1 Bft) 97,62 %
21.11.2016 23:22 4,3 C 99 % 1009,5 hPa 0,0 l/m 1,2 km/h (1 Bft) S-SW 196 0 min 0,000 mm 0,0 UV-I 0 W/m 4,2 C 4,3 C 3,2 km/h (1 Bft) 98,00 %
21.11.2016 23:24 4,2 C 99 % 1009,5 hPa 0,0 l/m 2,1 km/h (1 Bft) S-SW 196 0 min 0,000 mm 0,0 UV-I 0 W/m 4,1 C 4,2 C 4,8 km/h (1 Bft) 100,00 %
21.11.2016 23:26 4,1 C 99 % 1009,4 hPa 0,0 l/m 2,5 km/h (1 Bft) S-SW 196 0 min 0,000 mm 0,0 UV-I 0 W/m 4,0 C 4,1 C 3,2 km/h (1 Bft) 100,00 %
21.11.2016 23:28 4,1 C 99 % 1009,4 hPa 0,0 l/m 3,3 km/h (1 Bft) S-SW 196 0 min 0,000 mm 0,0 UV-I 0 W/m 4,0 C 4,1 C 4,8 km/h (1 Bft) 100,00 %
21.11.2016 23:30 4,2 C 98 % 1009,4 hPa 0,0 l/m 3,1 km/h (1 Bft) S-SW 196 0 min 0,000 mm 0,0 UV-I 0 W/m 3,9 C 4,2 C 4,8 km/h (1 Bft) 97,87 %
21.11.2016 23:32 4,1 C 99 % 1009,5 hPa 0,0 l/m 2,0 km/h (1 Bft) S-SW 196 0 min 0,000 mm 0,0 UV-I 0 W/m 4,0 C 4,1 C 4,8 km/h (1 Bft) 100,00 %
21.11.2016 23:34 4,1 C 99 % 1009,4 hPa 0,0 l/m 0,9 km/h (0 Bft) S-SW 196 0 min 0,000 mm 0,0 UV-I 0 W/m 4,0 C 4,1 C 1,6 km/h (1 Bft) 100,00 %
21.11.2016 23:36 4,2 C 98 % 1009,4 hPa 0,0 l/m 1,0 km/h (0 Bft) S-SW 196 0 min 0,000 mm 0,0 UV-I 0 W/m 3,9 C 4,2 C 3,2 km/h (1 Bft) 100,00 %
21.11.2016 23:38 4,1 C 99 % 1009,4 hPa 0,0 l/m 0,8 km/h (0 Bft) S-SW 196 0 min 0,000 mm 0,0 UV-I 0 W/m 4,0 C 4,1 C 3,2 km/h (1 Bft) 100,00 %
21.11.2016 23:40 3,9 C 98 % 1009,4 hPa 0,0 l/m 2,2 km/h (1 Bft) S-SW 196 0 min 0,000 mm 0,0 UV-I 0 W/m 3,6 C 3,9 C 3,2 km/h (1 Bft) 100,00 %
21.11.2016 23:42 3,8 C 98 % 1009,4 hPa 0,0 l/m 2,6 km/h (1 Bft) S-SW 196 0 min 0,000 mm 0,0 UV-I 0 W/m 3,5 C 3,8 C 3,2 km/h (1 Bft) 97,87 %
21.11.2016 23:44 3,6 C 98 % 1009,4 hPa 0,0 l/m 0,5 km/h (0 Bft) S-SW 196 0 min 0,000 mm 0,0 UV-I 0 W/m 3,3 C 3,6 C 1,6 km/h (1 Bft) 98,00 %
21.11.2016 23:46 3,7 C 98 % 1009,4 hPa 0,0 l/m 0,8 km/h (0 Bft) S-SW 196 0 min 0,000 mm 0,0 UV-I 0 W/m 3,4 C 3,7 C 4,8 km/h (1 Bft) 100,00 %
21.11.2016 23:48 3,8 C 98 % 1009,4 hPa 0,0 l/m 5,0 km/h (1 Bft) S-SW 196 0 min 0,000 mm 0,0 UV-I 0 W/m 3,5 C 3,8 C 6,4 km/h (2 Bft) 100,00 %
21.11.2016 23:50 3,8 C 98 % 1009,4 hPa 0,0 l/m 2,8 km/h (1 Bft) S-SW 196 0 min 0,000 mm 0,0 UV-I 0 W/m 3,5 C 3,8 C 4,8 km/h (1 Bft) 100,00 %
21.11.2016 23:52 3,9 C 98 % 1009,4 hPa 0,0 l/m 2,5 km/h (1 Bft) S-SW 196 0 min 0,000 mm 0,0 UV-I 0 W/m 3,6 C 3,9 C 3,2 km/h (1 Bft) 100,00 %
21.11.2016 23:54 4,0 C 99 % 1009,4 hPa 0,0 l/m 2,9 km/h (1 Bft) S-SW 196 0 min 0,000 mm 0,0 UV-I 0 W/m 3,9 C 4,0 C 4,8 km/h (1 Bft) 100,00 %
21.11.2016 23:56 3,8 C 98 % 1009,4 hPa 0,0 l/m 2,8 km/h (1 Bft) S-SW 196 0 min 0,000 mm 0,0 UV-I 0 W/m 3,5 C 3,8 C 4,8 km/h (1 Bft) 100,00 %
21.11.2016 23:58 3,7 C 99 % 1009,5 hPa 0,0 l/m 5,4 km/h (1 Bft) S-SW 196 0 min 0,000 mm 0,0 UV-I 0 W/m 3,6 C 3,7 C 6,4 km/h (2 Bft) 100,00 %
_ Min-Zeit 08:10 13:40 14:32 - 00:18 - - - - - - 08:26 08:10 00:18 17:36
Minimum _ -1,3 C 82 % 1007,5 hPa - 0,0 km/h (0 Bft) - - - - - - -1,5 C -1,3 C 0,0 km/h (0 Bft) 91,30 %
_ Max-Zeit 14:14 00:20 00:20 09:22 12:10 - - 11:15 13:00 11:24 12:40 14:32 14:14 12:12 00:04
Maximum _ 11,3 C 99 % 1012,0 hPa 0,2 l/m 6,8 km/h
O-NO (2 Bft)
- - 5 min 0,178 mm 0,9 UV-I 412 W/m 9,0 C 11,3 C 9,7 km/h
NO (2 Bft)
100,00 %
Durchschnitt _ 3,7 C 96 % 1009,7 hPa #0,2 l/m 2,0 km/h (1 Bft) S-SW - #6:54 h #0,838 mm 0,7 UV-I 213 W/m 3,1 C 3,7 C 3,7 km/h (1 Bft) 98,77 %